Observation data for Panhandle on 02/15/2020      Previous  Date  Next       Current Mesonet Observations  Soil Data  Daily Summary Page  Observations in Plain Language
KPA1 150600Z 19016KT 01/00 A3005 RMK A01 T00080002  RH  095%=      5-min Rain = 0
KPA1 150601Z 19015KT 01/00 A3005 RMK A01 T00080002  RH  096%=      5-min Rain = 0
KPA1 150602Z 19014KT 01/00 A3005 RMK A01 T00080002  RH  095%=      5-min Rain = 0
KPA1 150603Z 20014KT 01/00 A3005 RMK A01 T00080002  RH  095%=      5-min Rain = 0
KPA1 150604Z 20015KT 01/00 A3005 RMK A01 T00080001  RH  095%=      5-min Rain = 0
KPA1 150605Z 19014KT 01/00 A3005 RMK A01 T00080002  RH  096%=      5-min Rain = 0
KPA1 150606Z 19014KT 01/00 A3005 RMK A01 T00080002  RH  096%=      5-min Rain = 0
KPA1 150607Z 20014KT 01/00 A3005 RMK A01 T00080002  RH  096%=      5-min Rain = 0
KPA1 150608Z 20015KT 01/00 A3005 RMK A01 T00080002  RH  096%=      5-min Rain = 0
KPA1 150609Z 20015KT 01/00 A3005 RMK A01 T00090002  RH  096%=      5-min Rain = 0
KPA1 150610Z 20012KT 01/00 A3005 RMK A01 T00090003  RH  095%=      5-min Rain = 0
KPA1 150611Z 20015KT 01/00 A3005 RMK A01 T00090003  RH  095%=      5-min Rain = 0
KPA1 150612Z 20014KT 01/00 A3006 RMK A01 T00090003  RH  095%=      5-min Rain = 0
KPA1 150613Z 20013KT 01/00 A3006 RMK A01 T00090003  RH  095%=      5-min Rain = 0
KPA1 150614Z 20013KT 01/00 A3006 RMK A01 T00090002  RH  095%=      5-min Rain = 0
KPA1 150615Z 20013KT 01/00 A3006 RMK A01 T00090003  RH  095%=      5-min Rain = 0
KPA1 150616Z 20013KT 01/00 A3006 RMK A01 T00090003  RH  095%=      5-min Rain = 0
KPA1 150617Z 20013KT 01/00 A3006 RMK A01 T00100003  RH  095%=      5-min Rain = 0
KPA1 150618Z 20014KT 01/00 A3005 RMK A01 T00100003  RH  095%=      5-min Rain = 0
KPA1 150619Z 20013KT 01/00 A3005 RMK A01 T00100003  RH  095%=      5-min Rain = 0
KPA1 150620Z 20012KT 01/00 A3005 RMK A01 T00100003  RH  095%=      5-min Rain = 0
KPA1 150621Z 19012KT 01/00 A3005 RMK A01 T00100003  RH  095%=      5-min Rain = 0
KPA1 150622Z 20013KT 01/00 A3005 RMK A01 T00100003  RH  095%=      5-min Rain = 0
KPA1 150623Z 20013KT 01/00 A3005 RMK A01 T00100003  RH  095%=      5-min Rain = 0
KPA1 150624Z 20013KT 01/00 A3005 RMK A01 T00110004  RH  095%=      5-min Rain = 0
KPA1 150625Z 20014KT 01/00 A3005 RMK A01 T00110004  RH  095%=      5-min Rain = 0
KPA1 150626Z 20012KT 01/00 A3005 RMK A01 T00120004  RH  095%=      5-min Rain = 0
KPA1 150627Z 20014KT 01/01 A3005 RMK A01 T00120005  RH  095%=      5-min Rain = 0
KPA1 150628Z 20014KT 01/01 A3005 RMK A01 T00120005  RH  095%=      5-min Rain = 0
KPA1 150629Z 20013KT 01/01 A3005 RMK A01 T00130006  RH  095%=      5-min Rain = 0
KPA1 150630Z 20012KT 01/01 A3005 RMK A01 T00130005  RH  095%=      5-min Rain = 0
KPA1 150631Z 20014KT 01/00 A3005 RMK A01 T00120004  RH  094%=      5-min Rain = 0
KPA1 150632Z 20015KT 01/01 A3005 RMK A01 T00130006  RH  095%=      5-min Rain = 0
KPA1 150633Z 20014KT 02/01 A3005 RMK A01 T00150007  RH  095%=      5-min Rain = 0
KPA1 150634Z 20013KT 02/01 A3004 RMK A01 T00150006  RH  094%=      5-min Rain = 0
KPA1 150635Z 20014KT 01/01 A3004 RMK A01 T00140005  RH  094%=      5-min Rain = 0
KPA1 150636Z 20016KT 01/01 A3004 RMK A01 T00130005  RH  094%=      5-min Rain = 0
KPA1 150637Z 20016KT 01/01 A3004 RMK A01 T00130005  RH  094%=      5-min Rain = 0
KPA1 150638Z 20015KT 01/01 A3004 RMK A01 T00130005  RH  094%=      5-min Rain = 0
KPA1 150639Z 19016KT 01/01 A3004 RMK A01 T00140006  RH  094%=      5-min Rain = 0
KPA1 150640Z 20016KT 01/01 A3004 RMK A01 T00140006  RH  094%=      5-min Rain = 0
KPA1 150641Z 20018KT 02/01 A3004 RMK A01 T00150006  RH  094%=      5-min Rain = 0
KPA1 150642Z 20016KT 02/01 A3004 RMK A01 T00150007  RH  094%=      5-min Rain = 0
KPA1 150643Z 20017G24KT 02/01 A3004 RMK A01 T00150006  RH  094%=      5-min Rain = 0
KPA1 150644Z 20017KT 02/01 A3004 RMK A01 T00150006  RH  094%=      5-min Rain = 0
KPA1 150645Z 20017KT 02/01 A3004 RMK A01 T00150006  RH  094%=      5-min Rain = 0
KPA1 150646Z 20018KT 02/01 A3004 RMK A01 T00150006  RH  094%=      5-min Rain = 0
KPA1 150647Z 20020KT 02/01 A3004 RMK A01 T00150007  RH  094%=      5-min Rain = 0
KPA1 150648Z 20017KT 02/01 A3004 RMK A01 T00160008  RH  094%=      5-min Rain = 0
KPA1 150649Z 20017KT 02/01 A3004 RMK A01 T00160007  RH  094%=      5-min Rain = 0
KPA1 150650Z 20017KT 02/01 A3004 RMK A01 T00160006  RH  094%=      5-min Rain = 0
KPA1 150651Z 20018KT 02/01 A3003 RMK A01 T00150006  RH  094%=      5-min Rain = 0
KPA1 150652Z 20019KT 02/01 A3003 RMK A01 T00150006  RH  094%=      5-min Rain = 0
KPA1 150653Z 20017KT 02/01 A3003 RMK A01 T00150006  RH  094%=      5-min Rain = 0
KPA1 150654Z 20018KT 02/01 A3003 RMK A01 T00150006  RH  094%=      5-min Rain = 0
KPA1 150655Z 20018KT 02/01 A3003 RMK A01 T00150006  RH  094%=      5-min Rain = 0
KPA1 150656Z 20018KT 02/01 A3003 RMK A01 T00150006  RH  094%=      5-min Rain = 0
KPA1 150657Z 20019KT 02/01 A3003 RMK A01 T00150006  RH  094%=      5-min Rain = 0
KPA1 150658Z 20017KT 02/01 A3003 RMK A01 T00150006  RH  094%=      5-min Rain = 0
KPA1 150659Z 20016KT 01/01 A3003 RMK A01 T00140005  RH  094%=      5-min Rain = 0
KPA1 150700Z 20016KT 01/01 A3003 RMK A01 T00140005  RH  094%=      5-min Rain = 0
KPA1 150701Z 20016KT 01/01 A3003 RMK A01 T00130005  RH  094%=      5-min Rain = 0
KPA1 150702Z 20017KT 01/01 A3003 RMK A01 T00130005  RH  094%=      5-min Rain = 0
KPA1 150703Z 20017KT 01/01 A3003 RMK A01 T00130006  RH  095%=      5-min Rain = 0
KPA1 150704Z 20017KT 01/01 A3003 RMK A01 T00140006  RH  095%=      5-min Rain = 0
KPA1 150705Z 20018KT 01/01 A3003 RMK A01 T00140006  RH  095%=      5-min Rain = 0
KPA1 150706Z 20018KT 02/01 A3003 RMK A01 T00150007  RH  095%=      5-min Rain = 0
KPA1 150707Z 20018KT 02/01 A3003 RMK A01 T00150007  RH  094%=      5-min Rain = 0
KPA1 150708Z 20020KT 02/01 A3003 RMK A01 T00150007  RH  094%=      5-min Rain = 0
KPA1 150709Z 20018KT 02/01 A3003 RMK A01 T00160008  RH  094%=      5-min Rain = 0
KPA1 150710Z 20017KT 02/01 A3003 RMK A01 T00160007  RH  094%=      5-min Rain = 0
KPA1 150711Z 20018KT 02/01 A3003 RMK A01 T00160007  RH  094%=      5-min Rain = 0
KPA1 150712Z 20016KT 02/01 A3003 RMK A01 T00160007  RH  094%=      5-min Rain = 0
KPA1 150713Z 20019KT 02/01 A3003 RMK A01 T00150006  RH  094%=      5-min Rain = 0
KPA1 150714Z 20017KT 02/01 A3003 RMK A01 T00150006  RH  094%=      5-min Rain = 0
KPA1 150715Z 20016KT 02/01 A3003 RMK A01 T00150006  RH  094%=      5-min Rain = 0
KPA1 150716Z 20017KT 02/01 A3003 RMK A01 T00150006  RH  094%=      5-min Rain = 0
KPA1 150717Z 20019KT 02/01 A3002 RMK A01 T00150006  RH  094%=      5-min Rain = 0
KPA1 150718Z 20020KT 02/01 A3002 RMK A01 T00150007  RH  094%=      5-min Rain = 0
KPA1 150719Z 20019KT 02/01 A3002 RMK A01 T00160007  RH  094%=      5-min Rain = 0
KPA1 150720Z 20018G23KT 02/01 A3002 RMK A01 T00160007  RH  094%=      5-min Rain = 0
KPA1 150721Z 20019G24KT 02/01 A3002 RMK A01 T00160007  RH  094%=      5-min Rain = 0
KPA1 150722Z 20018KT 02/01 A3002 RMK A01 T00160007  RH  094%=      5-min Rain = 0
KPA1 150723Z 20020G25KT 02/01 A3002 RMK A01 T00160007  RH  094%=      5-min Rain = 0
KPA1 150724Z 20020KT 02/01 A3002 RMK A01 T00160008  RH  094%=      5-min Rain = 0
KPA1 150725Z 20021KT 02/01 A3002 RMK A01 T00170008  RH  094%=      5-min Rain = 0
KPA1 150726Z 20019KT 02/01 A3002 RMK A01 T00170009  RH  094%=      5-min Rain = 0
KPA1 150727Z 20019KT 02/01 A3002 RMK A01 T00170008  RH  094%=      5-min Rain = 0
KPA1 150728Z 20020KT 02/01 A3002 RMK A01 T00180009  RH  094%=      5-min Rain = 0
KPA1 150729Z 20020KT 02/01 A3002 RMK A01 T00180009  RH  094%=      5-min Rain = 0
KPA1 150730Z 20020KT 02/01 A3002 RMK A01 T00180009  RH  094%=      5-min Rain = 0
KPA1 150731Z 20019KT 02/01 A3002 RMK A01 T00190009  RH  094%=      5-min Rain = 0
KPA1 150732Z 20018KT 02/01 A3002 RMK A01 T00190009  RH  093%=      5-min Rain = 0
KPA1 150733Z 20019G25KT 02/01 A3002 RMK A01 T00190009  RH  093%=      5-min Rain = 0
KPA1 150734Z 20019G25KT 02/01 A3002 RMK A01 T00190009  RH  093%=      5-min Rain = 0
KPA1 150735Z 20020G25KT 02/01 A3002 RMK A01 T00190010  RH  093%=      5-min Rain = 0
KPA1 150736Z 20020KT 02/01 A3002 RMK A01 T00200010  RH  093%=      5-min Rain = 0
KPA1 150737Z 20020KT 02/01 A3002 RMK A01 T00200010  RH  093%=      5-min Rain = 0
KPA1 150738Z 20021KT 02/01 A3002 RMK A01 T00200010  RH  093%=      5-min Rain = 0
KPA1 150739Z 20020G25KT 02/01 A3002 RMK A01 T00200010  RH  093%=      5-min Rain = 0
KPA1 150740Z 20022KT 02/01 A3002 RMK A01 T00210011  RH  093%=      5-min Rain = 0
KPA1 150741Z 20019KT 02/01 A3002 RMK A01 T00220011  RH  093%=      5-min Rain = 0
KPA1 150742Z 20019KT 02/01 A3002 RMK A01 T00220011  RH  093%=      5-min Rain = 0
KPA1 150743Z 20019KT 02/01 A3001 RMK A01 T00210011  RH  093%=      5-min Rain = 0
KPA1 150744Z 20019KT 02/01 A3002 RMK A01 T00210011  RH  093%=      5-min Rain = 0
KPA1 150745Z 20018KT 02/01 A3002 RMK A01 T00220011  RH  093%=      5-min Rain = 0
KPA1 150746Z 20018KT 02/01 A3001 RMK A01 T00220011  RH  093%=      5-min Rain = 0
KPA1 150747Z 20018G23KT 02/01 A3001 RMK A01 T00220011  RH  093%=      5-min Rain = 0
KPA1 150748Z 20019KT 02/01 A3001 RMK A01 T00220011  RH  093%=      5-min Rain = 0
KPA1 150749Z 20019G24KT 02/01 A3001 RMK A01 T00220011  RH  093%=      5-min Rain = 0
KPA1 150750Z 20019KT 02/01 A3001 RMK A01 T00220012  RH  093%=      5-min Rain = 0
KPA1 150751Z 20019KT 02/01 A3001 RMK A01 T00220011  RH  093%=      5-min Rain = 0
KPA1 150752Z 20020KT 02/01 A3001 RMK A01 T00220011  RH  093%=      5-min Rain = 0
KPA1 150753Z 20021KT 02/01 A3001 RMK A01 T00220012  RH  093%=      5-min Rain = 0
KPA1 150754Z 20019KT 02/01 A3001 RMK A01 T00230012  RH  093%=      5-min Rain = 0
KPA1 150755Z 20020G25KT 02/01 A3001 RMK A01 T00230012  RH  093%=      5-min Rain = 0
KPA1 150756Z 20019KT 02/01 A3001 RMK A01 T00230012  RH  093%=      5-min Rain = 0
KPA1 150757Z 20020KT 02/01 A3001 RMK A01 T00230012  RH  093%=      5-min Rain = 0
KPA1 150758Z 20019KT 02/01 A3001 RMK A01 T00230012  RH  093%=      5-min Rain = 0
KPA1 150759Z 20017KT 02/01 A3001 RMK A01 T00230012  RH  092%=      5-min Rain = 0
KPA1 150800Z 20017KT 02/01 A3001 RMK A01 T00230012  RH  092%=      5-min Rain = 0
KPA1 150801Z 20020KT 02/01 A3001 RMK A01 T00230012  RH  092%=      5-min Rain = 0
KPA1 150802Z 20019KT 02/01 A3001 RMK A01 T00230012  RH  092%=      5-min Rain = 0
KPA1 150803Z 20019KT 02/01 A3001 RMK A01 T00240012  RH  092%=      5-min Rain = 0
KPA1 150804Z 20020KT 02/01 A3001 RMK A01 T00240012  RH  092%=      5-min Rain = 0
KPA1 150805Z 20019KT 02/01 A3001 RMK A01 T00240012  RH  092%=      5-min Rain = 0
KPA1 150806Z 20020G25KT 02/01 A3001 RMK A01 T00240012  RH  092%=      5-min Rain = 0
KPA1 150807Z 20020KT 02/01 A3001 RMK A01 T00240012  RH  092%=      5-min Rain = 0
KPA1 150808Z 20020KT 03/01 A3001 RMK A01 T00250013  RH  092%=      5-min Rain = 0
KPA1 150809Z 20020G26KT 03/01 A30 RMK A01 T00250012  RH  092%=      5-min Rain = 0
KPA1 150810Z 20019G24KT 03/01 A3001 RMK A01 T00250012  RH  091%=      5-min Rain = 0
KPA1 150811Z 20020KT 03/01 A3001 RMK A01 T00250012  RH  091%=      5-min Rain = 0
KPA1 150812Z 20019KT 03/01 A3001 RMK A01 T00250012  RH  091%=      5-min Rain = 0
KPA1 150813Z 20020KT 03/01 A3001 RMK A01 T00250012  RH  091%=      5-min Rain = 0
KPA1 150814Z 20020G25KT 03/01 A3001 RMK A01 T00250012  RH  091%=      5-min Rain = 0
KPA1 150815Z 20018KT 03/01 A3001 RMK A01 T00250012  RH  091%=      5-min Rain = 0
KPA1 150816Z 20019KT 03/01 A3001 RMK A01 T00250012  RH  091%=      5-min Rain = 0
KPA1 150817Z 20018KT 03/01 A3001 RMK A01 T00250012  RH  091%=      5-min Rain = 0
KPA1 150818Z 20019KT 03/01 A3001 RMK A01 T00250012  RH  091%=      5-min Rain = 0
KPA1 150819Z 20019KT 03/01 A3001 RMK A01 T00250012  RH  091%=      5-min Rain = 0
KPA1 150820Z 20017KT 03/01 A3001 RMK A01 T00250012  RH  091%=      5-min Rain = 0
KPA1 150821Z 20016KT 03/01 A3001 RMK A01 T00250012  RH  091%=      5-min Rain = 0
KPA1 150822Z 21019KT 02/01 A3001 RMK A01 T00240011  RH  091%=      5-min Rain = 0
KPA1 150823Z 20018KT 02/01 A3001 RMK A01 T00240012  RH  091%=      5-min Rain = 0
KPA1 150824Z 20021KT 03/01 A3001 RMK A01 T00250012  RH  091%=      5-min Rain = 0
KPA1 150825Z 20018G23KT 03/01 A3001 RMK A01 T00250012  RH  091%=      5-min Rain = 0
KPA1 150826Z 20020KT 03/01 A30 RMK A01 T00250012  RH  091%=      5-min Rain = 0
KPA1 150827Z 20019KT 03/01 A30 RMK A01 T00250012  RH  091%=      5-min Rain = 0
KPA1 150828Z 21020G25KT 03/01 A30 RMK A01 T00250012  RH  091%=      5-min Rain = 0
KPA1 150829Z 20019KT 03/01 A30 RMK A01 T00250012  RH  091%=      5-min Rain = 0
KPA1 150830Z 20018KT 03/01 A30 RMK A01 T00250012  RH  091%=      5-min Rain = 0
KPA1 150831Z 20019KT 03/01 A30 RMK A01 T00250012  RH  091%=      5-min Rain = 0
KPA1 150832Z 20016G23KT 03/01 A30 RMK A01 T00250012  RH  091%=      5-min Rain = 0
KPA1 150833Z 20019KT 02/01 A30 RMK A01 T00240011  RH  091%=      5-min Rain = 0
KPA1 150834Z 20019KT 02/01 A30 RMK A01 T00240012  RH  091%=      5-min Rain = 0
KPA1 150835Z 20019KT 02/01 A30 RMK A01 T00240011  RH  091%=      5-min Rain = 0
KPA1 150836Z 20018KT 02/01 A30 RMK A01 T00240012  RH  091%=      5-min Rain = 0
KPA1 150837Z 20016KT 03/01 A30 RMK A01 T00250012  RH  091%=      5-min Rain = 0
KPA1 150838Z 20017KT 03/01 A30 RMK A01 T00250011  RH  091%=      5-min Rain = 0
KPA1 150839Z 20018G23KT 03/01 A30 RMK A01 T00250011  RH  091%=      5-min Rain = 0
KPA1 150840Z 20017G22KT 03/01 A30 RMK A01 T00250012  RH  091%=      5-min Rain = 0
KPA1 150841Z 20018KT 03/01 A30 RMK A01 T00250012  RH  091%=      5-min Rain = 0
KPA1 150842Z 20019KT 03/01 A30 RMK A01 T00250012  RH  091%=      5-min Rain = 0
KPA1 150843Z 21017KT 03/01 A30 RMK A01 T00260012  RH  091%=      5-min Rain = 0
KPA1 150844Z 20018G23KT 03/01 A30 RMK A01 T00250012  RH  091%=      5-min Rain = 0
KPA1 150845Z 21018KT 03/01 A30 RMK A01 T00250012  RH  091%=      5-min Rain = 0
KPA1 150846Z 20017KT 03/01 A30 RMK A01 T00260012  RH  091%=      5-min Rain = 0
KPA1 150847Z 20018KT 03/01 A30 RMK A01 T00260012  RH  091%=      5-min Rain = 0
KPA1 150848Z 20018G24KT 03/01 A30 RMK A01 T00260012  RH  091%=      5-min Rain = 0
KPA1 150849Z 20018KT 03/01 A2999 RMK A01 T00260012  RH  091%=      5-min Rain = 0
KPA1 150850Z 20018KT 03/01 A2999 RMK A01 T00260012  RH  090%=      5-min Rain = 0
KPA1 150851Z 20018KT 03/01 A2999 RMK A01 T00260012  RH  090%=      5-min Rain = 0
KPA1 150852Z 20018KT 03/01 A2999 RMK A01 T00270012  RH  090%=      5-min Rain = 0
KPA1 150853Z 20019KT 03/01 A2999 RMK A01 T00270012  RH  090%=      5-min Rain = 0
KPA1 150854Z 20020G25KT 03/01 A2999 RMK A01 T00270012  RH  090%=      5-min Rain = 0
KPA1 150855Z 20020KT 03/01 A2999 RMK A01 T00270012  RH  090%=      5-min Rain = 0
KPA1 150856Z 20016G21KT 03/01 A2999 RMK A01 T00270012  RH  090%=      5-min Rain = 0
KPA1 150857Z 20020KT 03/01 A2999 RMK A01 T00270012  RH  090%=      5-min Rain = 0
KPA1 150858Z 20019KT 03/01 A2999 RMK A01 T00270012  RH  090%=      5-min Rain = 0
KPA1 150859Z 21021KT 03/01 A2999 RMK A01 T00270012  RH  090%=      5-min Rain = 0
KPA1 150900Z 20017KT 03/01 A2999 RMK A01 T00270013  RH  090%=      5-min Rain = 0
KPA1 150901Z 20017G22KT 03/01 A2999 RMK A01 T00280013  RH  090%=      5-min Rain = 0
KPA1 150902Z 20019G26KT 03/01 A2999 RMK A01 T00270012  RH  090%=      5-min Rain = 0
KPA1 150903Z 20020G25KT 03/01 A2998 RMK A01 T00270013  RH  090%=      5-min Rain = 0
KPA1 150904Z 20021KT 03/01 A2998 RMK A01 T00270013  RH  090%=      5-min Rain = 0
KPA1 150905Z 20018KT 03/01 A2998 RMK A01 T00280013  RH  090%=      5-min Rain = 0
KPA1 150906Z 20018KT 03/01 A2998 RMK A01 T00280013  RH  090%=      5-min Rain = 0
KPA1 150907Z 20019KT 03/01 A2998 RMK A01 T00280012  RH  090%=      5-min Rain = 0
KPA1 150908Z 20021G27KT 03/01 A2998 RMK A01 T00280012  RH  090%=      5-min Rain = 0
KPA1 150909Z 20020KT 03/01 A2998 RMK A01 T00280013  RH  090%=      5-min Rain = 0
KPA1 150910Z 20018KT 03/01 A2998 RMK A01 T00280013  RH  090%=      5-min Rain = 0
KPA1 150911Z 20019G24KT 03/01 A2998 RMK A01 T00280012  RH  090%=      5-min Rain = 0
KPA1 150912Z 20020G26KT 03/01 A2998 RMK A01 T00280013  RH  090%=      5-min Rain = 0
KPA1 150913Z 20019KT 03/01 A2998 RMK A01 T00280013  RH  090%=      5-min Rain = 0
KPA1 150914Z 20020KT 03/01 A2998 RMK A01 T00280013  RH  090%=      5-min Rain = 0
KPA1 150915Z 20019KT 03/01 A2998 RMK A01 T00280013  RH  090%=      5-min Rain = 0
KPA1 150916Z 20019G24KT 03/01 A2998 RMK A01 T00280013  RH  090%=      5-min Rain = 0
KPA1 150917Z 20018KT 03/01 A2998 RMK A01 T00280013  RH  090%=      5-min Rain = 0
KPA1 150918Z 20019KT 03/01 A2998 RMK A01 T00280013  RH  090%=      5-min Rain = 0
KPA1 150919Z 20019KT 03/01 A2998 RMK A01 T00290013  RH  090%=      5-min Rain = 0
KPA1 150920Z 20020KT 03/01 A2998 RMK A01 T00290013  RH  090%=      5-min Rain = 0
KPA1 150921Z 20019KT 03/01 A2998 RMK A01 T00290013  RH  089%=      5-min Rain = 0
KPA1 150922Z 21018KT 03/01 A2998 RMK A01 T00290013  RH  089%=      5-min Rain = 0
KPA1 150923Z 20018KT 03/01 A2998 RMK A01 T00290013  RH  089%=      5-min Rain = 0
KPA1 150924Z 20018G24KT 03/01 A2998 RMK A01 T00290013  RH  089%=      5-min Rain = 0
KPA1 150925Z 20019KT 03/01 A2998 RMK A01 T00290013  RH  089%=      5-min Rain = 0
KPA1 150926Z 20019KT 03/01 A2998 RMK A01 T00290013  RH  089%=      5-min Rain = 0
KPA1 150927Z 20018KT 03/01 A2998 RMK A01 T00290013  RH  089%=      5-min Rain = 0
KPA1 150928Z 20017KT 03/01 A2998 RMK A01 T00290013  RH  089%=      5-min Rain = 0
KPA1 150929Z 20019KT 03/01 A2998 RMK A01 T00290013  RH  089%=      5-min Rain = 0
KPA1 150930Z 20018KT 03/01 A2998 RMK A01 T00290013  RH  089%=      5-min Rain = 0
KPA1 150931Z 20020G25KT 03/01 A2998 RMK A01 T00290013  RH  089%=      5-min Rain = 0
KPA1 150932Z 20017KT 03/01 A2998 RMK A01 T00300013  RH  089%=      5-min Rain = 0
KPA1 150933Z 20018G24KT 03/01 A2998 RMK A01 T00290013  RH  089%=      5-min Rain = 0
KPA1 150934Z 20018KT 03/01 A2998 RMK A01 T00290013  RH  089%=      5-min Rain = 0
KPA1 150935Z 20018KT 03/01 A2998 RMK A01 T00290013  RH  089%=      5-min Rain = 0
KPA1 150936Z 20018KT 03/01 A2998 RMK A01 T00290013  RH  089%=      5-min Rain = 0
KPA1 150937Z 21018KT 03/01 A2998 RMK A01 T00290013  RH  089%=      5-min Rain = 0
KPA1 150938Z 20018KT 03/01 A2998 RMK A01 T00290013  RH  089%=      5-min Rain = 0
KPA1 150939Z 20017KT 03/01 A2998 RMK A01 T00290013  RH  089%=      5-min Rain = 0
KPA1 150940Z 21016G22KT 03/01 A2998 RMK A01 T00280012  RH  089%=      5-min Rain = 0
KPA1 150941Z 20017KT 03/01 A2998 RMK A01 T00280012  RH  089%=      5-min Rain = 0
KPA1 150942Z 20017KT 03/01 A2998 RMK A01 T00280012  RH  089%=      5-min Rain = 0
KPA1 150943Z 20018KT 03/01 A2998 RMK A01 T00280013  RH  090%=      5-min Rain = 0
KPA1 150944Z 20017KT 03/01 A2998 RMK A01 T00280013  RH  090%=      5-min Rain = 0
KPA1 150945Z 20016KT 03/01 A2998 RMK A01 T00280013  RH  089%=      5-min Rain = 0
KPA1 150946Z 20016KT 03/01 A2998 RMK A01 T00280012  RH  089%=      5-min Rain = 0
KPA1 150947Z 20017KT 03/01 A2998 RMK A01 T00280012  RH  090%=      5-min Rain = 0
KPA1 150948Z 21013KT 03/01 A2998 RMK A01 T00280012  RH  090%=      5-min Rain = 0
KPA1 150949Z 21016KT 03/01 A2998 RMK A01 T00270012  RH  090%=      5-min Rain = 0
KPA1 150950Z 21016KT 03/01 A2998 RMK A01 T00270012  RH  090%=      5-min Rain = 0
KPA1 150951Z 21018KT 03/01 A2998 RMK A01 T00270012  RH  090%=      5-min Rain = 0
KPA1 150952Z 21018KT 03/01 A2998 RMK A01 T00280013  RH  090%=      5-min Rain = 0
KPA1 150953Z 20017KT 03/01 A2998 RMK A01 T00290013  RH  090%=      5-min Rain = 0
KPA1 150954Z 21017KT 03/01 A2998 RMK A01 T00280013  RH  089%=      5-min Rain = 0
KPA1 150955Z 21017KT 03/01 A2998 RMK A01 T00280012  RH  089%=      5-min Rain = 0
KPA1 150956Z 21017KT 03/01 A2998 RMK A01 T00280012  RH  090%=      5-min Rain = 0
KPA1 150957Z 20017KT 03/01 A2998 RMK A01 T00280013  RH  089%=      5-min Rain = 0
KPA1 150958Z 20016KT 03/01 A2998 RMK A01 T00280013  RH  089%=      5-min Rain = 0
KPA1 150959Z 20016KT 03/01 A2998 RMK A01 T00280012  RH  089%=      5-min Rain = 0
KPA1 151000Z 21017KT 03/01 A2998 RMK A01 T00280012  RH  089%=      5-min Rain = 0
KPA1 151001Z 21016KT 03/01 A2998 RMK A01 T00280012  RH  090%=      5-min Rain = 0
KPA1 151002Z 21017KT 03/01 A2998 RMK A01 T00280012  RH  090%=      5-min Rain = 0
KPA1 151003Z 21016KT 03/01 A2998 RMK A01 T00280012  RH  090%=      5-min Rain = 0
KPA1 151004Z 21017KT 03/01 A2998 RMK A01 T00270012  RH  090%=      5-min Rain = 0
KPA1 151005Z 20016KT 03/01 A2998 RMK A01 T00280013  RH  090%=      5-min Rain = 0
KPA1 151006Z 21016KT 03/01 A2998 RMK A01 T00280012  RH  090%=      5-min Rain = 0
KPA1 151007Z 20017KT 03/01 A2998 RMK A01 T00280012  RH  090%=      5-min Rain = 0
KPA1 151008Z 20016KT 03/01 A2998 RMK A01 T00270012  RH  090%=      5-min Rain = 0
KPA1 151009Z 21017KT 03/01 A2998 RMK A01 T00270012  RH  090%=      5-min Rain = 0
KPA1 151010Z 20017KT 03/01 A2998 RMK A01 T00270012  RH  090%=      5-min Rain = 0
KPA1 151011Z 21018KT 03/01 A2998 RMK A01 T00270012  RH  090%=      5-min Rain = 0
KPA1 151012Z 21018KT 03/01 A2998 RMK A01 T00280013  RH  090%=      5-min Rain = 0
KPA1 151013Z 21017KT 03/01 A2998 RMK A01 T00280013  RH  090%=      5-min Rain = 0
KPA1 151014Z 21019KT 03/01 A2998 RMK A01 T00290013  RH  089%=      5-min Rain = 0
KPA1 151015Z 21018KT 03/01 A2998 RMK A01 T00280013  RH  089%=      5-min Rain = 0
KPA1 151016Z 21018KT 03/01 A2998 RMK A01 T00280012  RH  089%=      5-min Rain = 0
KPA1 151017Z 21020KT 03/01 A2997 RMK A01 T00290013  RH  089%=      5-min Rain = 0
KPA1 151018Z 20019KT 03/01 A2997 RMK A01 T00280013  RH  089%=      5-min Rain = 0
KPA1 151019Z 21019KT 03/01 A2997 RMK A01 T00290012  RH  089%=      5-min Rain = 0
KPA1 151020Z 21018KT 03/01 A2997 RMK A01 T00290013  RH  089%=      5-min Rain = 0
KPA1 151021Z 21017KT 03/01 A2997 RMK A01 T00280012  RH  089%=      5-min Rain = 0
KPA1 151022Z 21018KT 03/01 A2997 RMK A01 T00290012  RH  089%=      5-min Rain = 0
KPA1 151023Z 21021KT 03/01 A2997 RMK A01 T00280012  RH  089%=      5-min Rain = 0
KPA1 151024Z 21019KT 03/01 A2997 RMK A01 T00290013  RH  089%=      5-min Rain = 0
KPA1 151025Z 21020KT 03/01 A2997 RMK A01 T00300013  RH  089%=      5-min Rain = 0
KPA1 151026Z 21018KT 03/01 A2997 RMK A01 T00290013  RH  089%=      5-min Rain = 0
KPA1 151027Z 21019G26KT 03/01 A2997 RMK A01 T00290012  RH  089%=      5-min Rain = 0
KPA1 151028Z 21019KT 03/01 A2997 RMK A01 T00290013  RH  089%=      5-min Rain = 0
KPA1 151029Z 21017KT 03/01 A2997 RMK A01 T00290013  RH  089%=      5-min Rain = 0
KPA1 151030Z 21017KT 03/01 A2997 RMK A01 T00280012  RH  089%=      5-min Rain = 0
KPA1 151031Z 21018KT 03/01 A2997 RMK A01 T00270011  RH  089%=      5-min Rain = 0
KPA1 151032Z 21016G22KT 03/01 A2997 RMK A01 T00270011  RH  090%=      5-min Rain = 0
KPA1 151033Z 21018KT 03/01 A2997 RMK A01 T00270012  RH  090%=      5-min Rain = 0
KPA1 151034Z 21019KT 03/01 A2997 RMK A01 T00270012  RH  090%=      5-min Rain = 0
KPA1 151035Z 21016KT 03/01 A2997 RMK A01 T00280013  RH  090%=      5-min Rain = 0
KPA1 151036Z 21018KT 03/01 A2997 RMK A01 T00280012  RH  089%=      5-min Rain = 0
KPA1 151037Z 21016KT 03/01 A2997 RMK A01 T00280013  RH  089%=      5-min Rain = 0
KPA1 151038Z 21017KT 03/01 A2997 RMK A01 T00280012  RH  089%=      5-min Rain = 0
KPA1 151039Z 21018KT 03/01 A2997 RMK A01 T00280012  RH  089%=      5-min Rain = 0
KPA1 151040Z 21019KT 03/01 A2997 RMK A01 T00280012  RH  089%=      5-min Rain = 0
KPA1 151041Z 21020KT 03/01 A2997 RMK A01 T00280012  RH  090%=      5-min Rain = 0
KPA1 151042Z 21019G24KT 03/01 A2997 RMK A01 T00280012  RH  089%=      5-min Rain = 0
KPA1 151043Z 21020KT 03/01 A2997 RMK A01 T00290012  RH  089%=      5-min Rain = 0
KPA1 151044Z 21020G25KT 03/01 A2996 RMK A01 T00280012  RH  089%=      5-min Rain = 0
KPA1 151045Z 21020G25KT 03/01 A2996 RMK A01 T00290012  RH  089%=      5-min Rain = 0
KPA1 151046Z 21021KT 03/01 A2996 RMK A01 T00290013  RH  089%=      5-min Rain = 0
KPA1 151047Z 21019KT 03/01 A2996 RMK A01 T00290012  RH  089%=      5-min Rain = 0
KPA1 151048Z 21020KT 03/01 A2996 RMK A01 T00290012  RH  089%=      5-min Rain = 0
KPA1 151049Z 21020G26KT 03/01 A2996 RMK A01 T00280012  RH  089%=      5-min Rain = 0
KPA1 151050Z 21021KT 03/01 A2996 RMK A01 T00280012  RH  089%=      5-min Rain = 0
KPA1 151051Z 21019KT 03/01 A2996 RMK A01 T00290012  RH  089%=      5-min Rain = 0
KPA1 151052Z 21019KT 03/01 A2996 RMK A01 T00280012  RH  089%=      5-min Rain = 0
KPA1 151053Z 21018KT 03/01 A2997 RMK A01 T00280011  RH  089%=      5-min Rain = 0
KPA1 151054Z 21020KT 03/01 A2997 RMK A01 T00280012  RH  089%=      5-min Rain = 0
KPA1 151055Z 21019KT 03/01 A2996 RMK A01 T00270012  RH  089%=      5-min Rain = 0
KPA1 151056Z 21019KT 03/01 A2996 RMK A01 T00280012  RH  089%=      5-min Rain = 0
KPA1 151057Z 21019G24KT 03/01 A2996 RMK A01 T00280011  RH  089%=      5-min Rain = 0
KPA1 151058Z 21019KT 03/01 A2996 RMK A01 T00270011  RH  089%=      5-min Rain = 0
KPA1 151059Z 21021KT 03/01 A2996 RMK A01 T00270011  RH  089%=      5-min Rain = 0
KPA1 151100Z 21018KT 03/01 A2996 RMK A01 T00270011  RH  089%=      5-min Rain = 0
KPA1 151101Z 22019KT 03/01 A2996 RMK A01 T00270010  RH  089%=      5-min Rain = 0
KPA1 151102Z 21019KT 03/01 A2996 RMK A01 T00260011  RH  089%=      5-min Rain = 0
KPA1 151103Z 21018KT 03/01 A2996 RMK A01 T00260011  RH  090%=      5-min Rain = 0
KPA1 151104Z 22017KT 03/01 A2996 RMK A01 T00260010  RH  090%=      5-min Rain = 0
KPA1 151105Z 21019KT 03/01 A2996 RMK A01 T00260010  RH  090%=      5-min Rain = 0
KPA1 151106Z 21018KT 03/01 A2996 RMK A01 T00250010  RH  090%=      5-min Rain = 0
KPA1 151107Z 22020KT 03/01 A2996 RMK A01 T00250010  RH  090%=      5-min Rain = 0
KPA1 151108Z 21019KT 03/01 A2996 RMK A01 T00250010  RH  090%=      5-min Rain = 0
KPA1 151109Z 21018KT 03/01 A2996 RMK A01 T00250010  RH  090%=      5-min Rain = 0
KPA1 151110Z 21019KT 03/01 A2996 RMK A01 T00250010  RH  090%=      5-min Rain = 0
KPA1 151111Z 21020KT 03/01 A2996 RMK A01 T00250010  RH  090%=      5-min Rain = 0
KPA1 151112Z 21019KT 03/01 A2996 RMK A01 T00250010  RH  090%=      5-min Rain = 0
KPA1 151113Z 21019KT 03/01 A2996 RMK A01 T00250010  RH  090%=      5-min Rain = 0
KPA1 151114Z 21018KT 03/01 A2996 RMK A01 T00250010  RH  090%=      5-min Rain = 0
KPA1 151115Z 21020KT 03/01 A2996 RMK A01 T00250009  RH  090%=      5-min Rain = 0
KPA1 151116Z 21019KT 02/01 A2996 RMK A01 T00240009  RH  090%=      5-min Rain = 0
KPA1 151117Z 21018G23KT 02/01 A2996 RMK A01 T00240010  RH  090%=      5-min Rain = 0
KPA1 151118Z 21019KT 02/01 A2996 RMK A01 T00240009  RH  090%=      5-min Rain = 0
KPA1 151119Z 21018KT 02/01 A2996 RMK A01 T00240009  RH  090%=      5-min Rain = 0
KPA1 151120Z 21017KT 02/01 A2996 RMK A01 T00240009  RH  090%=      5-min Rain = 0
KPA1 151121Z 22019KT 02/01 A2996 RMK A01 T00240009  RH  090%=      5-min Rain = 0
KPA1 151122Z 21016KT 02/01 A2996 RMK A01 T00240009  RH  090%=      5-min Rain = 0
KPA1 151123Z 21017KT 02/01 A2996 RMK A01 T00230009  RH  090%=      5-min Rain = 0
KPA1 151124Z 22018KT 02/01 A2996 RMK A01 T00230008  RH  090%=      5-min Rain = 0
KPA1 151125Z 22017KT 02/01 A2997 RMK A01 T00230009  RH  091%=      5-min Rain = 0
KPA1 151126Z 22016KT 02/01 A2997 RMK A01 T00230009  RH  091%=      5-min Rain = 0
KPA1 151127Z 22016KT 02/01 A2997 RMK A01 T00230009  RH  091%=      5-min Rain = 0
KPA1 151128Z 22015G20KT 02/01 A2997 RMK A01 T00230009  RH  091%=      5-min Rain = 0
KPA1 151129Z 22016KT 02/01 A2997 RMK A01 T00220008  RH  091%=      5-min Rain = 0
KPA1 151130Z 22015KT 02/01 A2997 RMK A01 T00220008  RH  091%=      5-min Rain = 0
KPA1 151131Z 22014KT 02/01 A2998 RMK A01 T00220008  RH  091%=      5-min Rain = 0
KPA1 151132Z 22015KT 02/01 A2998 RMK A01 T00220008  RH  091%=      5-min Rain = 0
KPA1 151133Z 23014KT 02/01 A2998 RMK A01 T00220008  RH  091%=      5-min Rain = 0
KPA1 151134Z 22014KT 02/01 A2998 RMK A01 T00220008  RH  091%=      5-min Rain = 0
KPA1 151135Z 23014KT 02/01 A2998 RMK A01 T00210008  RH  091%=      5-min Rain = 0
KPA1 151136Z 23014KT 02/01 A2998 RMK A01 T00210008  RH  091%=      5-min Rain = 0
KPA1 151137Z 23012KT 02/01 A2998 RMK A01 T00210007  RH  091%=      5-min Rain = 0
KPA1 151138Z 23012KT 02/01 A2998 RMK A01 T00200007  RH  091%=      5-min Rain = 0
KPA1 151139Z 23013KT 02/01 A2998 RMK A01 T00200007  RH  091%=      5-min Rain = 0
KPA1 151140Z 22014KT 02/01 A2998 RMK A01 T00190007  RH  091%=      5-min Rain = 0
KPA1 151141Z 22014KT 02/01 A2998 RMK A01 T00190007  RH  092%=      5-min Rain = 0
KPA1 151142Z 22014KT 02/01 A2998 RMK A01 T00200008  RH  092%=      5-min Rain = 0
KPA1 151143Z 23013KT 02/01 A2998 RMK A01 T00200007  RH  091%=      5-min Rain = 0
KPA1 151144Z 23013KT 02/01 A2998 RMK A01 T00200007  RH  091%=      5-min Rain = 0
KPA1 151145Z 23013KT 02/01 A2998 RMK A01 T00200007  RH  091%=      5-min Rain = 0
KPA1 151146Z 23013KT 02/01 A2998 RMK A01 T00200007  RH  091%=      5-min Rain = 0
KPA1 151147Z 23012KT 02/01 A2999 RMK A01 T00200007  RH  091%=      5-min Rain = 0
KPA1 151148Z 23013KT 02/01 A2999 RMK A01 T00200007  RH  091%=      5-min Rain = 0
KPA1 151149Z 24011KT 02/01 A2999 RMK A01 T00200007  RH  091%=      5-min Rain = 0
KPA1 151150Z 24010KT 02/01 A2999 RMK A01 T00200007  RH  091%=      5-min Rain = 0
KPA1 151151Z 24009KT 02/01 A2999 RMK A01 T00190006  RH  091%=      5-min Rain = 0
KPA1 151152Z 24010KT 02/01 A2999 RMK A01 T00190006  RH  091%=      5-min Rain = 0
KPA1 151153Z 24009KT 02/01 A2999 RMK A01 T00190006  RH  092%=      5-min Rain = 0
KPA1 151154Z 25009KT 02/01 A2999 RMK A01 T00180006  RH  092%=      5-min Rain = 0
KPA1 151155Z 25009KT 02/01 A2999 RMK A01 T00180006  RH  092%=      5-min Rain = 0
KPA1 151156Z 25009KT 02/01 A2999 RMK A01 T00180006  RH  092%=      5-min Rain = 0
KPA1 151157Z 25010KT 02/01 A2999 RMK A01 T00180006  RH  092%=      5-min Rain = 0
KPA1 151158Z 25010KT 02/01 A30 RMK A01 T00170006  RH  092%=      5-min Rain = 0
KPA1 151159Z 24011KT 02/01 A2999 RMK A01 T00170006  RH  092%=      5-min Rain = 0
KPA1 151200Z 24010KT 02/01 A2999 RMK A01 T00170006  RH  092%=      5-min Rain = 0
KPA1 151201Z 24011KT 02/01 A2999 RMK A01 T00170006  RH  092%=      5-min Rain = 0
KPA1 151202Z 24011KT 02/01 A2999 RMK A01 T00170005  RH  092%=      5-min Rain = 0
KPA1 151203Z 23012KT 02/01 A2999 RMK A01 T00160005  RH  092%=      5-min Rain = 0
KPA1 151204Z 23012KT 02/01 A2999 RMK A01 T00160005  RH  093%=      5-min Rain = 0
KPA1 151205Z 23011KT 02/01 A2999 RMK A01 T00160005  RH  093%=      5-min Rain = 0
KPA1 151206Z 23011KT 02/01 A2999 RMK A01 T00160005  RH  093%=      5-min Rain = 0
KPA1 151207Z 23012KT 02/01 A2999 RMK A01 T00150005  RH  093%=      5-min Rain = 0
KPA1 151208Z 23011KT 02/01 A2999 RMK A01 T00150005  RH  093%=      5-min Rain = 0
KPA1 151209Z 23011KT 02/01 A2999 RMK A01 T00150005  RH  093%=      5-min Rain = 0
KPA1 151210Z 23011KT 01/01 A2999 RMK A01 T00140005  RH  093%=      5-min Rain = 0
KPA1 151211Z 23010KT 01/01 A2999 RMK A01 T00140005  RH  093%=      5-min Rain = 0
KPA1 151212Z 23010KT 01/00 A2999 RMK A01 T00140004  RH  093%=      5-min Rain = 0
KPA1 151213Z 24009KT 01/00 A2999 RMK A01 T00130004  RH  094%=      5-min Rain = 0
KPA1 151214Z 24009KT 01/00 A2999 RMK A01 T00130004  RH  094%=      5-min Rain = 0
KPA1 151215Z 25008KT 01/01 A2999 RMK A01 T00130005  RH  094%=      5-min Rain = 0
KPA1 151216Z 25008KT 01/00 A2999 RMK A01 T00130004  RH  094%=      5-min Rain = 0
KPA1 151217Z 25009KT 01/00 A2999 RMK A01 T00130004  RH  094%=      5-min Rain = 0
KPA1 151218Z 24008KT 01/00 A2999 RMK A01 T00120003  RH  094%=      5-min Rain = 0
KPA1 151219Z 24008KT 01/00 A2999 RMK A01 T00120003  RH  094%=      5-min Rain = 0
KPA1 151220Z 24009KT 01/00 A2999 RMK A01 T00110002  RH  094%=      5-min Rain = 0
KPA1 151221Z 24009KT 01/00 A2999 RMK A01 T00110003  RH  094%=      5-min Rain = 0
KPA1 151222Z 23009KT 01/00 A2999 RMK A01 T00110003  RH  094%=      5-min Rain = 0
KPA1 151223Z 23010KT 01/00 A2999 RMK A01 T00110002  RH  094%=      5-min Rain = 0
KPA1 151224Z 23010KT 01/00 A2998 RMK A01 T00110003  RH  094%=      5-min Rain = 0
KPA1 151225Z 23010KT 01/00 A2999 RMK A01 T00110003  RH  094%=      5-min Rain = 0
KPA1 151226Z 24010KT 01/00 A2999 RMK A01 T00110003  RH  094%=      5-min Rain = 0
KPA1 151227Z 24011KT 01/00 A2999 RMK A01 T00120004  RH  095%=      5-min Rain = 0
KPA1 151228Z 24011KT 01/01 A2999 RMK A01 T00130005  RH  094%=      5-min Rain = 0
KPA1 151229Z 23012KT 01/01 A2998 RMK A01 T00130005  RH  094%=      5-min Rain = 0
KPA1 151230Z 23011KT 01/01 A2998 RMK A01 T00140005  RH  094%=      5-min Rain = 0
KPA1 151231Z 23013KT 01/00 A2998 RMK A01 T00130004  RH  094%=      5-min Rain = 0
KPA1 151232Z 23012KT 01/01 A2998 RMK A01 T00140005  RH  094%=      5-min Rain = 0
KPA1 151233Z 23011KT 02/01 A2998 RMK A01 T00150005  RH  093%=      5-min Rain = 0
KPA1 151234Z 23011KT 02/01 A2998 RMK A01 T00150005  RH  093%=      5-min Rain = 0
KPA1 151235Z 23012KT 02/01 A2998 RMK A01 T00160005  RH  093%=      5-min Rain = 0
KPA1 151236Z 23012KT 02/01 A2999 RMK A01 T00160005  RH  093%=      5-min Rain = 0
KPA1 151237Z 23011KT 02/01 A2999 RMK A01 T00170006  RH  093%=      5-min Rain = 0
KPA1 151238Z 23011KT 02/01 A2999 RMK A01 T00170006  RH  092%=      5-min Rain = 0
KPA1 151239Z 23011KT 02/01 A2999 RMK A01 T00170005  RH  092%=      5-min Rain = 0
KPA1 151240Z 23011KT 02/01 A2999 RMK A01 T00170005  RH  092%=      5-min Rain = 0
KPA1 151241Z 23012KT 02/01 A2999 RMK A01 T00170005  RH  092%=      5-min Rain = 0
KPA1 151242Z 23012KT 02/01 A2998 RMK A01 T00180006  RH  092%=      5-min Rain = 0
KPA1 151243Z 23012KT 02/01 A2998 RMK A01 T00180006  RH  092%=      5-min Rain = 0
KPA1 151244Z 23012KT 02/01 A2998 RMK A01 T00180006  RH  091%=      5-min Rain = 0
KPA1 151245Z 23013KT 02/01 A2998 RMK A01 T00190006  RH  091%=      5-min Rain = 0
KPA1 151246Z 23013KT 02/01 A2999 RMK A01 T00190006  RH  091%=      5-min Rain = 0
KPA1 151247Z 23013KT 02/01 A2999 RMK A01 T00190006  RH  091%=      5-min Rain = 0
KPA1 151248Z 23012KT 02/01 A2999 RMK A01 T00190006  RH  091%=      5-min Rain = 0
KPA1 151249Z 23012KT 02/01 A2999 RMK A01 T00180005  RH  091%=      5-min Rain = 0
KPA1 151250Z 24011KT 02/01 A2999 RMK A01 T00180005  RH  091%=      5-min Rain = 0
KPA1 151251Z 24010KT 02/00 A2999 RMK A01 T00180004  RH  091%=      5-min Rain = 0
KPA1 151252Z 24010KT 02/00 A2999 RMK A01 T00170004  RH  091%=      5-min Rain = 0
KPA1 151253Z 24010KT 02/00 A2999 RMK A01 T00170004  RH  091%=      5-min Rain = 0
KPA1 151254Z 25010KT 02/00 A2999 RMK A01 T00160003  RH  091%=      5-min Rain = 0
KPA1 151255Z 25010KT 02/00 A2999 RMK A01 T00160003  RH  091%=      5-min Rain = 0
KPA1 151256Z 25009KT 02/00 A2999 RMK A01 T00160003  RH  092%=      5-min Rain = 0
KPA1 151257Z 25010KT 02/00 A30 RMK A01 T00150003  RH  092%=      5-min Rain = 0
KPA1 151258Z 25009KT 01/00 A30 RMK A01 T00140002  RH  092%=      5-min Rain = 0
KPA1 151259Z 25010KT 01/00 A30 RMK A01 T00140002  RH  092%=      5-min Rain = 0
KPA1 151300Z 25010KT 01/00 A30 RMK A01 T00140003  RH  092%=      5-min Rain = 0
KPA1 151301Z 25010KT 02/00 A30 RMK A01 T00150004  RH  092%=      5-min Rain = 0
KPA1 151302Z 24010KT 02/00 A30 RMK A01 T00150003  RH  092%=      5-min Rain = 0
KPA1 151303Z 24010KT 02/00 A30 RMK A01 T00150003  RH  092%=      5-min Rain = 0
KPA1 151304Z 24010KT 01/00 A30 RMK A01 T00140003  RH  092%=      5-min Rain = 0
KPA1 151305Z 24011KT 01/00 A30 RMK A01 T00140002  RH  092%=      5-min Rain = 0
KPA1 151306Z 24011KT 01/00 A30 RMK A01 T00130002  RH  092%=      5-min Rain = 0
KPA1 151307Z 24011KT 01/00 A30 RMK A01 T00130002  RH  092%=      5-min Rain = 0
KPA1 151308Z 24011KT 01/00 A30 RMK A01 T00130002  RH  092%=      5-min Rain = 0
KPA1 151309Z 24012KT 01/00 A30 RMK A01 T00120001  RH  093%=      5-min Rain = 0
KPA1 151310Z 24011KT 01/00 A30 RMK A01 T00120001  RH  093%=      5-min Rain = 0
KPA1 151311Z 24011KT 01/00 A30 RMK A01 T00120001  RH  093%=      5-min Rain = 0
KPA1 151312Z 24011KT 01/00 A30 RMK A01 T00120001  RH  093%=      5-min Rain = 0
KPA1 151313Z 24010KT 01/00 A30 RMK A01 T00110001  RH  093%=      5-min Rain = 0
KPA1 151314Z 24010KT 01/00 A30 RMK A01 T001000-0  RH  093%=      5-min Rain = 0
KPA1 151315Z 24011KT 01/00 A30 RMK A01 T00100000  RH  093%=      5-min Rain = 0
KPA1 151316Z 25010KT 01/00 A30 RMK A01 T00100000  RH  093%=      5-min Rain = 0
KPA1 151317Z 25010KT 01/00 A30 RMK A01 T00100000  RH  093%=      5-min Rain = 0
KPA1 151318Z 25010KT 01/00 A30 RMK A01 T00100000  RH  093%=      5-min Rain = 0
KPA1 151319Z 25011KT 01/00 A30 RMK A01 T00100001  RH  094%=      5-min Rain = 0
KPA1 151320Z 25010KT 01/00 A30 RMK A01 T00110002  RH  094%=      5-min Rain = 0
KPA1 151321Z 25011KT 01/00 A30 RMK A01 T00130003  RH  093%=      5-min Rain = 0
KPA1 151322Z 25011KT 02/01 A30 RMK A01 T00150005  RH  093%=      5-min Rain = 0
KPA1 151323Z 25012KT 02/00 A30 RMK A01 T00160004  RH  092%=      5-min Rain = 0
KPA1 151324Z 26012KT 02/00 A30 RMK A01 T00170004  RH  091%=      5-min Rain = 0
KPA1 151325Z 26013KT 02/00 A30 RMK A01 T00180004  RH  090%=      5-min Rain = 0
KPA1 151326Z 25014KT 02/00 A30 RMK A01 T00180004  RH  090%=      5-min Rain = 0
KPA1 151327Z 26013KT 02/00 A3001 RMK A01 T00190004  RH  090%=      5-min Rain = 0
KPA1 151328Z 25013KT 02/00 A3001 RMK A01 T00200004  RH  089%=      5-min Rain = 0
KPA1 151329Z 25013KT 02/00 A3001 RMK A01 T00200003  RH  089%=      5-min Rain = 0
KPA1 151330Z 25015KT 02/00 A3001 RMK A01 T00200003  RH  089%=      5-min Rain = 0
KPA1 151331Z 25014KT 02/00 A30 RMK A01 T00210004  RH  088%=      5-min Rain = 0
KPA1 151332Z 25015KT 02/00 A30 RMK A01 T00220004  RH  088%=      5-min Rain = 0
KPA1 151333Z 25015KT 02/00 A30 RMK A01 T00220003  RH  087%=      5-min Rain = 0
KPA1 151334Z 25014KT 02/00 A30 RMK A01 T00220003  RH  087%=      5-min Rain = 0
KPA1 151335Z 25015KT 02/00 A3001 RMK A01 T00230004  RH  087%=      5-min Rain = 0
KPA1 151336Z 26014KT 02/00 A3001 RMK A01 T00240004  RH  087%=      5-min Rain = 0
KPA1 151337Z 26014KT 02/00 A3001 RMK A01 T00240004  RH  086%=      5-min Rain = 0
KPA1 151338Z 26012KT 02/00 A3001 RMK A01 T00240004  RH  086%=      5-min Rain = 0
KPA1 151339Z 26013KT 02/00 A3001 RMK A01 T00230003  RH  087%=      5-min Rain = 0
KPA1 151340Z 26012KT 02/00 A3001 RMK A01 T00230003  RH  087%=      5-min Rain = 0
KPA1 151341Z 26012KT 02/00 A3001 RMK A01 T00240004  RH  087%=      5-min Rain = 0
KPA1 151342Z 27011KT 02/00 A3002 RMK A01 T00240003  RH  086%=      5-min Rain = 0
KPA1 151343Z 27010KT 02/00 A3002 RMK A01 T00240003  RH  086%=      5-min Rain = 0
KPA1 151344Z 27010KT 02/00 A3002 RMK A01 T00230002  RH  086%=      5-min Rain = 0
KPA1 151345Z 27010KT 02/00 A3002 RMK A01 T00220002  RH  087%=      5-min Rain = 0
KPA1 151346Z 28010KT 02/00 A3002 RMK A01 T00210001  RH  087%=      5-min Rain = 0
KPA1 151347Z 28009KT 02/00 A3002 RMK A01 T00190000  RH  087%=      5-min Rain = 0
KPA1 151348Z 28009KT 02/00 A3002 RMK A01 T001800-0  RH  088%=      5-min Rain = 0
KPA1 151349Z 27009KT 02/00 A3002 RMK A01 T00180000  RH  088%=      5-min Rain = 0
KPA1 151350Z 27010KT 02/00 A3002 RMK A01 T00170000  RH  088%=      5-min Rain = 0
KPA1 151351Z 27009KT 02/00 A3002 RMK A01 T00170001  RH  089%=      5-min Rain = 0
KPA1 151352Z 27012KT 02/00 A3002 RMK A01 T00170000  RH  088%=      5-min Rain = 0
KPA1 151353Z 27011KT 02/00 A3002 RMK A01 T00190002  RH  089%=      5-min Rain = 0
KPA1 151354Z 27011KT 02/00 A3002 RMK A01 T00200002  RH  088%=      5-min Rain = 0
KPA1 151355Z 27011KT 02/00 A3002 RMK A01 T00210002  RH  088%=      5-min Rain = 0
KPA1 151356Z 27011KT 02/00 A3002 RMK A01 T00210002  RH  087%=      5-min Rain = 0
KPA1 151357Z 27012KT 02/00 A3002 RMK A01 T00200002  RH  087%=      5-min Rain = 0
KPA1 151358Z 27012KT 02/00 A3002 RMK A01 T00200002  RH  087%=      5-min Rain = 0
KPA1 151359Z 27012KT 02/00 A3002 RMK A01 T00210002  RH  087%=      5-min Rain = 0
KPA1 151400Z 27012KT 02/00 A3002 RMK A01 T00200001  RH  087%=      5-min Rain = 0
KPA1 151401Z 28012KT 02/00 A3002 RMK A01 T00200001  RH  087%=      5-min Rain = 0
KPA1 151402Z 28013KT 02/00 A3002 RMK A01 T00200001  RH  087%=      5-min Rain = 0
KPA1 151403Z 28013KT 02/00 A3002 RMK A01 T00210002  RH  087%=      5-min Rain = 0
KPA1 151404Z 28012KT 02/00 A3003 RMK A01 T00210002  RH  087%=      5-min Rain = 0
KPA1 151405Z 28012KT 02/00 A3003 RMK A01 T00210001  RH  087%=      5-min Rain = 0
KPA1 151406Z 28012KT 02/00 A3003 RMK A01 T00210001  RH  087%=      5-min Rain = 0
KPA1 151407Z 28011KT 02/00 A3003 RMK A01 T00210001  RH  087%=      5-min Rain = 0
KPA1 151408Z 28011KT 02/00 A3003 RMK A01 T00210001  RH  087%=      5-min Rain = 0
KPA1 151409Z 29011KT 02/00 A3003 RMK A01 T00200001  RH  087%=      5-min Rain = 0
KPA1 151410Z 28010KT 02/00 A3003 RMK A01 T00200001  RH  087%=      5-min Rain = 0
KPA1 151411Z 28011KT 02/00 A3002 RMK A01 T00200001  RH  087%=      5-min Rain = 0
KPA1 151412Z 28011KT 02/00 A3002 RMK A01 T00190000  RH  087%=      5-min Rain = 0
KPA1 151413Z 28011KT 02/00 A3002 RMK A01 T00190001  RH  087%=      5-min Rain = 0
KPA1 151414Z 28011KT 02/00 A3002 RMK A01 T00200001  RH  087%=      5-min Rain = 0
KPA1 151415Z 28012KT 02/00 A3002 RMK A01 T00190001  RH  088%=      5-min Rain = 0
KPA1 151416Z 28012KT 02/00 A3002 RMK A01 T00200002  RH  088%=      5-min Rain = 0
KPA1 151417Z 29012KT 02/00 A3002 RMK A01 T00210002  RH  088%=      5-min Rain = 0
KPA1 151418Z 29012KT 02/00 A3002 RMK A01 T00220003  RH  088%=      5-min Rain = 0
KPA1 151419Z 28012KT 02/00 A3002 RMK A01 T00220003  RH  087%=      5-min Rain = 0
KPA1 151420Z 29010KT 02/00 A3002 RMK A01 T00220003  RH  087%=      5-min Rain = 0
KPA1 151421Z 29010KT 02/00 A3002 RMK A01 T00220003  RH  087%=      5-min Rain = 0
KPA1 151422Z 29011KT 02/00 A3002 RMK A01 T00220003  RH  087%=      5-min Rain = 0
KPA1 151423Z 29011KT 02/00 A3002 RMK A01 T00230004  RH  087%=      5-min Rain = 0
KPA1 151424Z 29012KT 02/01 A3003 RMK A01 T00240005  RH  087%=      5-min Rain = 0
KPA1 151425Z 29012KT 03/01 A3003 RMK A01 T00250006  RH  087%=      5-min Rain = 0
KPA1 151426Z 29011KT 03/01 A3003 RMK A01 T00250006  RH  087%=      5-min Rain = 0
KPA1 151427Z 29013KT 03/01 A3003 RMK A01 T00260005  RH  087%=      5-min Rain = 0
KPA1 151428Z 29012KT 03/01 A3003 RMK A01 T00260006  RH  086%=      5-min Rain = 0
KPA1 151429Z 29011KT 03/01 A3003 RMK A01 T00270006  RH  086%=      5-min Rain = 0
KPA1 151430Z 29011KT 03/01 A3003 RMK A01 T00270006  RH  086%=      5-min Rain = 0
KPA1 151431Z 29011KT 03/01 A3003 RMK A01 T00270007  RH  086%=      5-min Rain = 0
KPA1 151432Z 29011KT 03/01 A3003 RMK A01 T00280007  RH  086%=      5-min Rain = 0
KPA1 151433Z 29011KT 03/01 A3003 RMK A01 T00290007  RH  086%=      5-min Rain = 0
KPA1 151434Z 29011KT 03/01 A3003 RMK A01 T00300008  RH  085%=      5-min Rain = 0
KPA1 151435Z 30011KT 03/01 A3003 RMK A01 T00310008  RH  085%=      5-min Rain = 0
KPA1 151436Z 30012KT 03/01 A3003 RMK A01 T00310008  RH  085%=      5-min Rain = 0
KPA1 151437Z 30012KT 03/01 A3003 RMK A01 T00320008  RH  084%=      5-min Rain = 0
KPA1 151438Z 30012KT 03/01 A3003 RMK A01 T00330008  RH  084%=      5-min Rain = 0
KPA1 151439Z 30012KT 03/01 A3004 RMK A01 T00340008  RH  083%=      5-min Rain = 0
KPA1 151440Z 30013KT 04/01 A3004 RMK A01 T00350008  RH  083%=      5-min Rain = 0
KPA1 151441Z 30014KT 04/01 A3004 RMK A01 T00360008  RH  082%=      5-min Rain = 0
KPA1 151442Z 30013KT 04/01 A3004 RMK A01 T00370008  RH  081%=      5-min Rain = 0
KPA1 151443Z 30013KT 04/01 A3004 RMK A01 T00380008  RH  081%=      5-min Rain = 0
KPA1 151444Z 31013KT 04/01 A3004 RMK A01 T00380008  RH  081%=      5-min Rain = 0
KPA1 151445Z 31014KT 04/01 A3004 RMK A01 T00390007  RH  080%=      5-min Rain = 0
KPA1 151446Z 31013KT 04/01 A3004 RMK A01 T00400006  RH  078%=      5-min Rain = 0
KPA1 151447Z 32013KT 04/00 A3004 RMK A01 T00410004  RH  077%=      5-min Rain = 0
KPA1 151448Z 32011KT 04/00 A3004 RMK A01 T00420003  RH  076%=      5-min Rain = 0
KPA1 151449Z 32012KT 04/00 A3004 RMK A01 T00430004  RH  076%=      5-min Rain = 0
KPA1 151450Z 32012KT 04/00 A3004 RMK A01 T00440002  RH  074%=      5-min Rain = 0
KPA1 151451Z 33011KT 05/00 A3004 RMK A01 T00450001  RH  073%=      5-min Rain = 0
KPA1 151452Z 32012KT 05/00 A3004 RMK A01 T00450001  RH  073%=      5-min Rain = 0
KPA1 151453Z 33012KT 05/M00 A3004 RMK A01 T00461001  RH  072%=      5-min Rain = 0
KPA1 151454Z 33013KT 05/M00 A3004 RMK A01 T00461002  RH  071%=      5-min Rain = 0
KPA1 151455Z 34014KT 05/M00 A3004 RMK A01 T00471004  RH  069%=      5-min Rain = 0
KPA1 151456Z 34015KT 05/M01 A3004 RMK A01 T00481007  RH  067%=      5-min Rain = 0
KPA1 151457Z 34014KT 05/M01 A3004 RMK A01 T00501010  RH  065%=      5-min Rain = 0
KPA1 151458Z 34013G18KT 05/M01 A3004 RMK A01 T00501010  RH  065%=      5-min Rain = 0
KPA1 151459Z 34014KT 05/M01 A3004 RMK A01 T00511013  RH  063%=      5-min Rain = 0
KPA1 151500Z 34012KT 05/M01 A3004 RMK A01 T00521012  RH  063%=      5-min Rain = 0
KPA1 151501Z 33012KT 05/M01 A3004 RMK A01 T00531012  RH  063%=      5-min Rain = 0
KPA1 151502Z 34013KT 05/M01 A3004 RMK A01 T00541012  RH  063%=      5-min Rain = 0
KPA1 151503Z 34012KT 05/M02 A3004 RMK A01 T00531015  RH  061%=      5-min Rain = 0
KPA1 151504Z 34012KT 05/M01 A3004 RMK A01 T00541013  RH  062%=      5-min Rain = 0
KPA1 151505Z 34012KT 05/M02 A3004 RMK A01 T00541015  RH  061%=      5-min Rain = 0
KPA1 151506Z 34013KT 05/M01 A3004 RMK A01 T00541014  RH  061%=      5-min Rain = 0
KPA1 151507Z 34010KT 06/M01 A3005 RMK A01 T00551012  RH  062%=      5-min Rain = 0
KPA1 151508Z 34013KT 06/M01 A3005 RMK A01 T00551012  RH  062%=      5-min Rain = 0
KPA1 151509Z 34011G16KT 06/M01 A3004 RMK A01 T00551014  RH  062%=      5-min Rain = 0
KPA1 151510Z 34013KT 06/M01 A3004 RMK A01 T00551012  RH  062%=      5-min Rain = 0
KPA1 151511Z 34011KT 06/M01 A3005 RMK A01 T00551012  RH  062%=      5-min Rain = 0
KPA1 151512Z 34010KT 06/M01 A3005 RMK A01 T00551012  RH  062%=      5-min Rain = 0
KPA1 151513Z 34010KT 06/M01 A3005 RMK A01 T00561011  RH  062%=      5-min Rain = 0
KPA1 151514Z 34015KT 06/M01 A3005 RMK A01 T00561010  RH  062%=      5-min Rain = 0
KPA1 151515Z 34012KT 06/M01 A3005 RMK A01 T00571012  RH  061%=      5-min Rain = 0
KPA1 151516Z 34012KT 06/M01 A3004 RMK A01 T00561012  RH  062%=      5-min Rain = 0
KPA1 151517Z 34012KT 06/M01 A3004 RMK A01 T00571014  RH  061%=      5-min Rain = 0
KPA1 151518Z 34011KT 06/M01 A3004 RMK A01 T00571013  RH  061%=      5-min Rain = 0
KPA1 151519Z 34011KT 06/M01 A3004 RMK A01 T00581012  RH  061%=      5-min Rain = 0
KPA1 151520Z 34010KT 06/M01 A3004 RMK A01 T00591012  RH  060%=      5-min Rain = 0
KPA1 151521Z 34012KT 06/M01 A3004 RMK A01 T00591012  RH  060%=      5-min Rain = 0
KPA1 151522Z 34012KT 06/M01 A3004 RMK A01 T00601013  RH  059%=      5-min Rain = 0
KPA1 151523Z 34012KT 06/M02 A3005 RMK A01 T00601015  RH  059%=      5-min Rain = 0
KPA1 151524Z 34013KT 06/M02 A3005 RMK A01 T00601016  RH  058%=      5-min Rain = 0
KPA1 151525Z 34014KT 06/M02 A3005 RMK A01 T00601016  RH  058%=      5-min Rain = 0
KPA1 151526Z 34014KT 06/M02 A3005 RMK A01 T00611016  RH  058%=      5-min Rain = 0
KPA1 151527Z 34013KT 06/M02 A3005 RMK A01 T00611017  RH  058%=      5-min Rain = 0
KPA1 151528Z 34012KT 06/M02 A3005 RMK A01 T00611015  RH  058%=      5-min Rain = 0
KPA1 151529Z 34010KT 06/M02 A3005 RMK A01 T00621015  RH  058%=      5-min Rain = 0
KPA1 151530Z 34010KT 06/M01 A3005 RMK A01 T00631013  RH  058%=      5-min Rain = 0
KPA1 151531Z 34012KT 06/M02 A3005 RMK A01 T00641015  RH  057%=      5-min Rain = 0
KPA1 151532Z 33010KT 06/M02 A3005 RMK A01 T00641016  RH  056%=      5-min Rain = 0
KPA1 151533Z 33010KT 07/M01 A3005 RMK A01 T00651013  RH  057%=      5-min Rain = 0
KPA1 151534Z 34011KT 07/M01 A3005 RMK A01 T00661013  RH  057%=      5-min Rain = 0
KPA1 151535Z 34011KT 07/M01 A3005 RMK A01 T00661014  RH  056%=      5-min Rain = 0
KPA1 151536Z 34012KT 07/M02 A3005 RMK A01 T00661015  RH  056%=      5-min Rain = 0
KPA1 151537Z 34011KT 07/M02 A3005 RMK A01 T00661015  RH  056%=      5-min Rain = 0
KPA1 151538Z 34015KT 07/M02 A3005 RMK A01 T00671016  RH  056%=      5-min Rain = 0
KPA1 151539Z 34013KT 07/M02 A3005 RMK A01 T00661017  RH  055%=      5-min Rain = 0
KPA1 151540Z 34014KT 07/M02 A3006 RMK A01 T00661018  RH  055%=      5-min Rain = 0
KPA1 151541Z 34013KT 07/M02 A3006 RMK A01 T00661018  RH  055%=      5-min Rain = 0
KPA1 151542Z 34011KT 07/M02 A3006 RMK A01 T00661016  RH  056%=      5-min Rain = 0
KPA1 151543Z 34012KT 07/M01 A3006 RMK A01 T00681014  RH  056%=      5-min Rain = 0
KPA1 151544Z 34011KT 07/M02 A3006 RMK A01 T00681016  RH  055%=      5-min Rain = 0
KPA1 151545Z 34011KT 07/M01 A3006 RMK A01 T00701014  RH  055%=      5-min Rain = 0
KPA1 151546Z 34016KT 07/M02 A3006 RMK A01 T00711016  RH  054%=      5-min Rain = 0
KPA1 151547Z 34016KT 07/M02 A3006 RMK A01 T00701021  RH  052%=      5-min Rain = 0
KPA1 151548Z 34015KT 07/M02 A3006 RMK A01 T00691022  RH  052%=      5-min Rain = 0
KPA1 151549Z 35014KT 07/M02 A3006 RMK A01 T00681023  RH  052%=      5-min Rain = 0
KPA1 151550Z 34014KT 07/M02 A3006 RMK A01 T00691021  RH  053%=      5-min Rain = 0
KPA1 151551Z 34012KT 07/M02 A3006 RMK A01 T00701021  RH  053%=      5-min Rain = 0
KPA1 151552Z 34012KT 07/M02 A3006 RMK A01 T00691020  RH  053%=      5-min Rain = 0
KPA1 151553Z 34015KT 07/M02 A3006 RMK A01 T00701021  RH  052%=      5-min Rain = 0
KPA1 151554Z 34016KT 07/M02 A3006 RMK A01 T00701022  RH  052%=      5-min Rain = 0
KPA1 151555Z 35015KT 07/M02 A3006 RMK A01 T00691024  RH  051%=      5-min Rain = 0
KPA1 151556Z 34015G20KT 07/M02 A3006 RMK A01 T00691024  RH  051%=      5-min Rain = 0
KPA1 151557Z 34015KT 07/M03 A3006 RMK A01 T00691025  RH  051%=      5-min Rain = 0
KPA1 151558Z 35015KT 07/M02 A3006 RMK A01 T00691023  RH  052%=      5-min Rain = 0
KPA1 151559Z 35014KT 07/M02 A3006 RMK A01 T00691024  RH  051%=      5-min Rain = 0
KPA1 151600Z 34015KT 07/M02 A3006 RMK A01 T00691023  RH  052%=      5-min Rain = 0
KPA1 151601Z 35016G22KT 07/M03 A3006 RMK A01 T00691025  RH  051%=      5-min Rain = 0
KPA1 151602Z 34015G20KT 07/M03 A3006 RMK A01 T00691025  RH  051%=      5-min Rain = 0
KPA1 151603Z 34014KT 07/M02 A3006 RMK A01 T00691024  RH  051%=      5-min Rain = 0
KPA1 151604Z 34015KT 07/M02 A3006 RMK A01 T00701022  RH  052%=      5-min Rain = 0
KPA1 151605Z 34017KT 07/M02 A3006 RMK A01 T00711024  RH  051%=      5-min Rain = 0
KPA1 151606Z 34013KT 07/M03 A3006 RMK A01 T00701025  RH  051%=      5-min Rain = 0
KPA1 151607Z 34011KT 07/M02 A3006 RMK A01 T00701022  RH  052%=      5-min Rain = 0
KPA1 151608Z 34013KT 07/M02 A3006 RMK A01 T00721021  RH  052%=      5-min Rain = 0
KPA1 151609Z 35017KT 07/M02 A3006 RMK A01 T00721023  RH  051%=      5-min Rain = 0
KPA1 151610Z 35016KT 07/M03 A3006 RMK A01 T00701025  RH  051%=      5-min Rain = 0
KPA1 151611Z 35016KT 07/M03 A3006 RMK A01 T00691025  RH  051%=      5-min Rain = 0
KPA1 151612Z 34016KT 07/M03 A3006 RMK A01 T00691025  RH  051%=      5-min Rain = 0
KPA1 151613Z 35015KT 07/M02 A3006 RMK A01 T00691023  RH  052%=      5-min Rain = 0
KPA1 151614Z 34014KT 07/M02 A3006 RMK A01 T00711021  RH  052%=      5-min Rain = 0
KPA1 151615Z 34014KT 07/M02 A3006 RMK A01 T00731019  RH  052%=      5-min Rain = 0
KPA1 151616Z 35013KT 07/M02 A3006 RMK A01 T00741019  RH  052%=      5-min Rain = 0
KPA1 151617Z 35014KT 08/M02 A3006 RMK A01 T00751018  RH  052%=      5-min Rain = 0
KPA1 151618Z 35016KT 08/M02 A3006 RMK A01 T00761018  RH  051%=      5-min Rain = 0
KPA1 151619Z 35016KT 08/M02 A3006 RMK A01 T00751022  RH  050%=      5-min Rain = 0
KPA1 151620Z 35018KT 07/M02 A3006 RMK A01 T00731023  RH  050%=      5-min Rain = 0
KPA1 151621Z 35014KT 07/M02 A3006 RMK A01 T00721024  RH  050%=      5-min Rain = 0
KPA1 151622Z 34014KT 07/M02 A3006 RMK A01 T00721023  RH  051%=      5-min Rain = 0
KPA1 151623Z 34013KT 07/M02 A3006 RMK A01 T00721023  RH  051%=      5-min Rain = 0
KPA1 151624Z 34014KT 07/M02 A3006 RMK A01 T00731021  RH  051%=      5-min Rain = 0
KPA1 151625Z 34015KT 07/M02 A3006 RMK A01 T00741021  RH  051%=      5-min Rain = 0
KPA1 151626Z 34014KT 08/M02 A3006 RMK A01 T00761020  RH  051%=      5-min Rain = 0
KPA1 151627Z 34014KT 08/M02 A3006 RMK A01 T00761022  RH  050%=      5-min Rain = 0
KPA1 151628Z 34013KT 08/M02 A3006 RMK A01 T00761020  RH  050%=      5-min Rain = 0
KPA1 151629Z 35014KT 08/M02 A3006 RMK A01 T00771021  RH  050%=      5-min Rain = 0
KPA1 151630Z 35012KT 08/M02 A3006 RMK A01 T00761022  RH  050%=      5-min Rain = 0
KPA1 151631Z 35012KT 08/M02 A3006 RMK A01 T00771021  RH  050%=      5-min Rain = 0
KPA1 151632Z 35011G17KT 08/M02 A3006 RMK A01 T00771020  RH  050%=      5-min Rain = 0
KPA1 151633Z 34014KT 08/M02 A3006 RMK A01 T00781020  RH  050%=      5-min Rain = 0
KPA1 151634Z 34012KT 08/M02 A3006 RMK A01 T00781021  RH  050%=      5-min Rain = 0
KPA1 151635Z 34011KT 08/M02 A3006 RMK A01 T00791017  RH  051%=      5-min Rain = 0
KPA1 151636Z 33013KT 08/M02 A3006 RMK A01 T00811018  RH  050%=      5-min Rain = 0
KPA1 151637Z 33013KT 08/M02 A3006 RMK A01 T00821019  RH  049%=      5-min Rain = 0
KPA1 151638Z 34013KT 08/M02 A3006 RMK A01 T00811019  RH  049%=      5-min Rain = 0
KPA1 151639Z 34015KT 08/M02 A3006 RMK A01 T00811020  RH  049%=      5-min Rain = 0
KPA1 151640Z 34014KT 08/M02 A3006 RMK A01 T00811019  RH  049%=      5-min Rain = 0
KPA1 151641Z 34014KT 08/M02 A3006 RMK A01 T00791021  RH  049%=      5-min Rain = 0
KPA1 151642Z 34014KT 08/M02 A3006 RMK A01 T00791022  RH  049%=      5-min Rain = 0
KPA1 151643Z 34013KT 08/M02 A3006 RMK A01 T00781023  RH  049%=      5-min Rain = 0
KPA1 151644Z 33015KT 08/M02 A3006 RMK A01 T00781022  RH  049%=      5-min Rain = 0
KPA1 151645Z 34014KT 08/M02 A3006 RMK A01 T00791022  RH  049%=      5-min Rain = 0
KPA1 151646Z 34012KT 08/M02 A3006 RMK A01 T00791021  RH  049%=      5-min Rain = 0
KPA1 151647Z 35012KT 08/M02 A3006 RMK A01 T00801021  RH  049%=      5-min Rain = 0
KPA1 151648Z 34012KT 08/M02 A3007 RMK A01 T00811021  RH  049%=      5-min Rain = 0
KPA1 151649Z 34012KT 08/M02 A3007 RMK A01 T00821020  RH  049%=      5-min Rain = 0
KPA1 151650Z 35012KT 08/M02 A3007 RMK A01 T00841020  RH  048%=      5-min Rain = 0
KPA1 151651Z 33013KT 08/M02 A3007 RMK A01 T00841020  RH  048%=      5-min Rain = 0
KPA1 151652Z 33011KT 08/M02 A3007 RMK A01 T00831022  RH  047%=      5-min Rain = 0
KPA1 151653Z 34009KT 08/M02 A3007 RMK A01 T00841018  RH  049%=      5-min Rain = 0
KPA1 151654Z 34014KT 09/M02 A3007 RMK A01 T00871017  RH  048%=      5-min Rain = 0
KPA1 151655Z 34014KT 09/M02 A3007 RMK A01 T00861021  RH  047%=      5-min Rain = 0
KPA1 151656Z 35011KT 09/M02 A3007 RMK A01 T00851021  RH  047%=      5-min Rain = 0
KPA1 151657Z 35012KT 09/M02 A3007 RMK A01 T00851023  RH  046%=      5-min Rain = 0
KPA1 151658Z 34014KT 08/M02 A3007 RMK A01 T00841024  RH  046%=      5-min Rain = 0
KPA1 151659Z 34015KT 08/M02 A3007 RMK A01 T00831024  RH  047%=      5-min Rain = 0
KPA1 151700Z 35014KT 08/M02 A3007 RMK A01 T00831024  RH  047%=      5-min Rain = 0
KPA1 151701Z 35014KT 08/M02 A3007 RMK A01 T00821024  RH  047%=      5-min Rain = 0
KPA1 151702Z 34016KT 08/M02 A3007 RMK A01 T00831023  RH  047%=      5-min Rain = 0
KPA1 151703Z 34015KT 08/M03 A3007 RMK A01 T00831025  RH  046%=      5-min Rain = 0
KPA1 151704Z 35015KT 08/M02 A3007 RMK A01 T00831024  RH  047%=      5-min Rain = 0
KPA1 151705Z 34014G19KT 08/M02 A3007 RMK A01 T00831024  RH  047%=      5-min Rain = 0
KPA1 151706Z 34016KT 08/M02 A3007 RMK A01 T00841023  RH  047%=      5-min Rain = 0
KPA1 151707Z 35014KT 09/M02 A3008 RMK A01 T00851024  RH  046%=      5-min Rain = 0
KPA1 151708Z 35014KT 09/M03 A3008 RMK A01 T00851026  RH  046%=      5-min Rain = 0
KPA1 151709Z 35012G17KT 08/M03 A3008 RMK A01 T00841025  RH  046%=      5-min Rain = 0
KPA1 151710Z 36013KT 08/M02 A3007 RMK A01 T00841024  RH  046%=      5-min Rain = 0
KPA1 151711Z 35012KT 09/M02 A3007 RMK A01 T00851022  RH  047%=      5-min Rain = 0
KPA1 151712Z 34016KT 09/M02 A3007 RMK A01 T00861021  RH  047%=      5-min Rain = 0
KPA1 151713Z 34016KT 09/M02 A3007 RMK A01 T00851023  RH  046%=      5-min Rain = 0
KPA1 151714Z 36015KT 08/M02 A3007 RMK A01 T00841024  RH  047%=      5-min Rain = 0
KPA1 151715Z 35015KT 08/M02 A3007 RMK A01 T00841023  RH  047%=      5-min Rain = 0
KPA1 151716Z 35015KT 09/M02 A3007 RMK A01 T00861019  RH  047%=      5-min Rain = 0
KPA1 151717Z 35015KT 09/M02 A3007 RMK A01 T00871022  RH  046%=      5-min Rain = 0
KPA1 151718Z 35013KT 09/M02 A3007 RMK A01 T00861021  RH  047%=      5-min Rain = 0
KPA1 151719Z 34013G18KT 09/M02 A3007 RMK A01 T00891017  RH  047%=      5-min Rain = 0
KPA1 151720Z 34013KT 09/M02 A3007 RMK A01 T00901018  RH  046%=      5-min Rain = 0
KPA1 151721Z 35013G18KT 09/M02 A3007 RMK A01 T00921017  RH  046%=      5-min Rain = 0
KPA1 151722Z 35014KT 09/M02 A3007 RMK A01 T00921019  RH  046%=      5-min Rain = 0
KPA1 151723Z 34014KT 09/M02 A3007 RMK A01 T00921019  RH  046%=      5-min Rain = 0
KPA1 151724Z 35017KT 09/M02 A3007 RMK A01 T00911020  RH  045%=      5-min Rain = 0
KPA1 151725Z 35015G20KT 09/M02 A3007 RMK A01 T00891023  RH  045%=      5-min Rain = 0
KPA1 151726Z 35014KT 09/M02 A3007 RMK A01 T00881022  RH  046%=      5-min Rain = 0
KPA1 151727Z 35014KT 09/M02 A3007 RMK A01 T00881022  RH  046%=      5-min Rain = 0
KPA1 151728Z 35013KT 09/M02 A3007 RMK A01 T00881021  RH  046%=      5-min Rain = 0
KPA1 151729Z 35013KT 09/M02 A3007 RMK A01 T00891019  RH  047%=      5-min Rain = 0
KPA1 151730Z 35013KT 09/M02 A3007 RMK A01 T00891019  RH  047%=      5-min Rain = 0
KPA1 151731Z 35013KT 09/M02 A3007 RMK A01 T00891019  RH  047%=      5-min Rain = 0
KPA1 151732Z 34012KT 09/M02 A3007 RMK A01 T00891018  RH  047%=      5-min Rain = 0
KPA1 151733Z 35018KT 09/M02 A3007 RMK A01 T00901019  RH  046%=      5-min Rain = 0
KPA1 151734Z 35015KT 09/M02 A3007 RMK A01 T00911021  RH  046%=      5-min Rain = 0
KPA1 151735Z 34013KT 09/M02 A3007 RMK A01 T00901021  RH  045%=      5-min Rain = 0
KPA1 151736Z 35013KT 09/M02 A3007 RMK A01 T00911020  RH  046%=      5-min Rain = 0
KPA1 151737Z 35013KT 09/M02 A3007 RMK A01 T00931019  RH  046%=      5-min Rain = 0
KPA1 151738Z 35012KT 09/M02 A3007 RMK A01 T00941018  RH  045%=      5-min Rain = 0
KPA1 151739Z 35016KT 10/M02 A3007 RMK A01 T00961018  RH  045%=      5-min Rain = 0
KPA1 151740Z 35016KT 09/M02 A3007 RMK A01 T00941023  RH  044%=      5-min Rain = 0
KPA1 151741Z 35013KT 09/M02 A3007 RMK A01 T00931023  RH  044%=      5-min Rain = 0
KPA1 151742Z 00013KT 09/M02 A3007 RMK A01 T00941024  RH  044%=      5-min Rain = 0
KPA1 151743Z 00014KT 10/M02 A3007 RMK A01 T00951023  RH  044%=      5-min Rain = 0
KPA1 151744Z 00014KT 09/M02 A3007 RMK A01 T00941024  RH  043%=      5-min Rain = 0
KPA1 151745Z 36013KT 09/M02 A3007 RMK A01 T00941023  RH  044%=      5-min Rain = 0
KPA1 151746Z 35013G18KT 09/M02 A3007 RMK A01 T00941020  RH  045%=      5-min Rain = 0
KPA1 151747Z 35014KT 10/M02 A3007 RMK A01 T00971019  RH  044%=      5-min Rain = 0
KPA1 151748Z 35013KT 10/M02 A3007 RMK A01 T00971020  RH  044%=      5-min Rain = 0
KPA1 151749Z 00013KT 10/M02 A3007 RMK A01 T00981017  RH  044%=      5-min Rain = 0
KPA1 151750Z 36012KT 10/M02 A3007 RMK A01 T01001016  RH  044%=      5-min Rain = 0
KPA1 151751Z 34012KT 10/M02 A3007 RMK A01 T01001016  RH  044%=      5-min Rain = 0
KPA1 151752Z 34014KT 10/M02 A3007 RMK A01 T01011017  RH  044%=      5-min Rain = 0
KPA1 151753Z 35017KT 10/M02 A3007 RMK A01 T01011018  RH  043%=      5-min Rain = 0
KPA1 151754Z 35018KT 10/M02 A3007 RMK A01 T00981023  RH  042%=      5-min Rain = 0
KPA1 151755Z 36014KT 10/M03 A3007 RMK A01 T00961025  RH  043%=      5-min Rain = 0
KPA1 151756Z 36016KT 10/M03 A3007 RMK A01 T00961026  RH  043%=      5-min Rain = 0
KPA1 151757Z 01014KT 09/M03 A3007 RMK A01 T00941026  RH  043%=      5-min Rain = 0
KPA1 151758Z 01015KT 10/M02 A3007 RMK A01 T00961021  RH  044%=      5-min Rain = 0
KPA1 151759Z 35012KT 10/M02 A3007 RMK A01 T00981019  RH  044%=      5-min Rain = 0
KPA1 151800Z 35015KT 10/M02 A3007 RMK A01 T01011017  RH  044%=      5-min Rain = 0
KPA1 151801Z 35014KT 10/M02 A3007 RMK A01 T01001022  RH  042%=      5-min Rain = 0
KPA1 151802Z 36013KT 10/M02 A3007 RMK A01 T00981024  RH  042%=      5-min Rain = 0
KPA1 151803Z 35012KT 10/M02 A3007 RMK A01 T00991019  RH  044%=      5-min Rain = 0
KPA1 151804Z 36014KT 10/M02 A3007 RMK A01 T01031016  RH  043%=      5-min Rain = 0
KPA1 151805Z 00016KT 10/M02 A3007 RMK A01 T01031021  RH  042%=      5-min Rain = 0
KPA1 151806Z 35012KT 10/M02 A3007 RMK A01 T01011021  RH  042%=      5-min Rain = 0
KPA1 151807Z 35014KT 10/M02 A3007 RMK A01 T01021019  RH  043%=      5-min Rain = 0
KPA1 151808Z 35011KT 10/M02 A3007 RMK A01 T01031018  RH  043%=      5-min Rain = 0
KPA1 151809Z 36010KT 11/M01 A3007 RMK A01 T01071014  RH  043%=      5-min Rain = 0
KPA1 151810Z 35013KT 11/M02 A3007 RMK A01 T01101015  RH  042%=      5-min Rain = 0
KPA1 151811Z 36013KT 11/M02 A3007 RMK A01 T01101018  RH  041%=      5-min Rain = 0
KPA1 151812Z 35014KT 11/M02 A3007 RMK A01 T01091019  RH  041%=      5-min Rain = 0
KPA1 151813Z 35014KT 11/M02 A3007 RMK A01 T01081023  RH  040%=      5-min Rain = 0
KPA1 151814Z 35013KT 11/M02 A3007 RMK A01 T01051022  RH  041%=      5-min Rain = 0
KPA1 151815Z 35012KT 11/M02 A3007 RMK A01 T01071019  RH  042%=      5-min Rain = 0
KPA1 151816Z 35013KT 11/M02 A3006 RMK A01 T01071021  RH  041%=      5-min Rain = 0
KPA1 151817Z 35016KT 11/M02 A3006 RMK A01 T01061021  RH  041%=      5-min Rain = 0
KPA1 151818Z 00015KT 11/M02 A3007 RMK A01 T01061021  RH  041%=      5-min Rain = 0
KPA1 151819Z 35016KT 11/M02 A3006 RMK A01 T01071023  RH  040%=      5-min Rain = 0
KPA1 151820Z 36013KT 11/M03 A3006 RMK A01 T01061026  RH  040%=      5-min Rain = 0
KPA1 151821Z 01011KT 11/M02 A3006 RMK A01 T01061021  RH  041%=      5-min Rain = 0
KPA1 151822Z 36014KT 11/M02 A3006 RMK A01 T01081017  RH  042%=      5-min Rain = 0
KPA1 151823Z 00012KT 11/M02 A3007 RMK A01 T01091018  RH  041%=      5-min Rain = 0
KPA1 151824Z 36012KT 11/M02 A3006 RMK A01 T01091016  RH  042%=      5-min Rain = 0
KPA1 151825Z 36016KT 11/M02 A3007 RMK A01 T01091019  RH  041%=      5-min Rain = 0
KPA1 151826Z 36016KT 11/M02 A3007 RMK A01 T01081024  RH  040%=      5-min Rain = 0
KPA1 151827Z 00015KT 11/M03 A3007 RMK A01 T01071025  RH  040%=      5-min Rain = 0
KPA1 151828Z 00014KT 11/M03 A3007 RMK A01 T01061025  RH  040%=      5-min Rain = 0
KPA1 151829Z 36013G18KT 11/M03 A3006 RMK A01 T01051025  RH  040%=      5-min Rain = 0
KPA1 151830Z 35015KT 11/M02 A3006 RMK A01 T01051023  RH  041%=      5-min Rain = 0
KPA1 151831Z 36015KT 11/M02 A3006 RMK A01 T01061022  RH  041%=      5-min Rain = 0
KPA1 151832Z 36013KT 11/M02 A3006 RMK A01 T01071023  RH  040%=      5-min Rain = 0
KPA1 151833Z 35015KT 11/M02 A3006 RMK A01 T01091019  RH  041%=      5-min Rain = 0
KPA1 151834Z 35016KT 11/M02 A3006 RMK A01 T01101021  RH  040%=      5-min Rain = 0
KPA1 151835Z 36017KT 11/M03 A3006 RMK A01 T01071025  RH  040%=      5-min Rain = 0
KPA1 151836Z 35016KT 11/M02 A3006 RMK A01 T01061023  RH  040%=      5-min Rain = 0
KPA1 151837Z 35018KT 11/M02 A3006 RMK A01 T01091022  RH  040%=      5-min Rain = 0
KPA1 151838Z 36014KT 11/M02 A3006 RMK A01 T01081024  RH  039%=      5-min Rain = 0
KPA1 151839Z 36013KT 11/M02 A3006 RMK A01 T01071024  RH  040%=      5-min Rain = 0
KPA1 151840Z 00014KT 11/M02 A3006 RMK A01 T01071022  RH  040%=      5-min Rain = 0
KPA1 151841Z 35015KT 11/M02 A3006 RMK A01 T01081023  RH  040%=      5-min Rain = 0
KPA1 151842Z 36014KT 11/M02 A3006 RMK A01 T01081022  RH  040%=      5-min Rain = 0
KPA1 151843Z 36013KT 11/M02 A3006 RMK A01 T01101023  RH  039%=      5-min Rain = 0
KPA1 151844Z 01014KT 11/M02 A3006 RMK A01 T01091024  RH  039%=      5-min Rain = 0
KPA1 151845Z 02014KT 11/M02 A3006 RMK A01 T01111020  RH  040%=      5-min Rain = 0
KPA1 151846Z 01012KT 11/M02 A3006 RMK A01 T01111023  RH  039%=      5-min Rain = 0
KPA1 151847Z 36014KT 11/M02 A3006 RMK A01 T01101023  RH  040%=      5-min Rain = 0
KPA1 151848Z 36017KT 11/M02 A3006 RMK A01 T01111021  RH  040%=      5-min Rain = 0
KPA1 151849Z 36015KT 11/M02 A3006 RMK A01 T01101023  RH  039%=      5-min Rain = 0
KPA1 151850Z 36014KT 11/M03 A3006 RMK A01 T01081025  RH  039%=      5-min Rain = 0
KPA1 151851Z 36012KT 11/M02 A3006 RMK A01 T01081023  RH  040%=      5-min Rain = 0
KPA1 151852Z 35014KT 11/M02 A3006 RMK A01 T01101020  RH  040%=      5-min Rain = 0
KPA1 151853Z 36012KT 11/M02 A3006 RMK A01 T01131019  RH  040%=      5-min Rain = 0
KPA1 151854Z 36014KT 11/M02 A3006 RMK A01 T01131023  RH  038%=      5-min Rain = 0
KPA1 151855Z 01013KT 11/M02 A3006 RMK A01 T01111024  RH  039%=      5-min Rain = 0
KPA1 151856Z 01014KT 11/M02 A3006 RMK A01 T01121023  RH  039%=      5-min Rain = 0
KPA1 151857Z 01011KT 11/M02 A3006 RMK A01 T01121023  RH  039%=      5-min Rain = 0
KPA1 151858Z 01012KT 11/M02 A3006 RMK A01 T01121022  RH  039%=      5-min Rain = 0
KPA1 151859Z 35011KT 11/M02 A3006 RMK A01 T01141017  RH  040%=      5-min Rain = 0
KPA1 151900Z 01012KT 12/M02 A3006 RMK A01 T01191016  RH  039%=      5-min Rain = 0
KPA1 151901Z 01010KT 12/M02 A3005 RMK A01 T01191020  RH  038%=      5-min Rain = 0
KPA1 151902Z 00015KT 12/M02 A3005 RMK A01 T01191018  RH  038%=      5-min Rain = 0
KPA1 151903Z 01013KT 12/M02 A3005 RMK A01 T01171024  RH  037%=      5-min Rain = 0
KPA1 151904Z 01010KT 12/M02 A3005 RMK A01 T01151021  RH  039%=      5-min Rain = 0
KPA1 151905Z 01013KT 12/M02 A3005 RMK A01 T01181017  RH  039%=      5-min Rain = 0
KPA1 151906Z 00013G18KT 12/M02 A3005 RMK A01 T01191022  RH  037%=      5-min Rain = 0
KPA1 151907Z 36014KT 12/M02 A3005 RMK A01 T01161023  RH  038%=      5-min Rain = 0
KPA1 151908Z 01015KT 12/M02 A3005 RMK A01 T01171021  RH  038%=      5-min Rain = 0
KPA1 151909Z 01013KT 12/M02 A3005 RMK A01 T01171023  RH  038%=      5-min Rain = 0
KPA1 151910Z 02014KT 12/M02 A3005 RMK A01 T01171021  RH  038%=      5-min Rain = 0
KPA1 151911Z 00011KT 12/M02 A3005 RMK A01 T01191018  RH  038%=      5-min Rain = 0
KPA1 151912Z 36012KT 12/M02 A3004 RMK A01 T01211016  RH  038%=      5-min Rain = 0
KPA1 151913Z 36013KT 12/M02 A3005 RMK A01 T01231017  RH  038%=      5-min Rain = 0
KPA1 151914Z 00012KT 12/M02 A3004 RMK A01 T01221019  RH  037%=      5-min Rain = 0
KPA1 151915Z 01016G21KT 12/M02 A3004 RMK A01 T01221020  RH  037%=      5-min Rain = 0
KPA1 151916Z 03014KT 12/M03 A3004 RMK A01 T01221025  RH  036%=      5-min Rain = 0
KPA1 151917Z 03017KT 12/M03 A3004 RMK A01 T01211026  RH  036%=      5-min Rain = 0
KPA1 151918Z 02014KT 12/M03 A3004 RMK A01 T01201026  RH  036%=      5-min Rain = 0
KPA1 151919Z 01014KT 12/M02 A3004 RMK A01 T01231022  RH  036%=      5-min Rain = 0
KPA1 151920Z 02015KT 12/M02 A3004 RMK A01 T01241021  RH  036%=      5-min Rain = 0
KPA1 151921Z 01016G21KT 13/M02 A3004 RMK A01 T01251021  RH  036%=      5-min Rain = 0
KPA1 151922Z 01015KT 12/M03 A3004 RMK A01 T01221026  RH  036%=      5-min Rain = 0
KPA1 151923Z 02012KT 12/M02 A3004 RMK A01 T01211024  RH  036%=      5-min Rain = 0
KPA1 151924Z 01011KT 12/M03 A3004 RMK A01 T01211025  RH  036%=      5-min Rain = 0
KPA1 151925Z 36013KT 12/M02 A3004 RMK A01 T01201024  RH  037%=      5-min Rain = 0
KPA1 151926Z 36014KT 12/M02 A3004 RMK A01 T01201024  RH  037%=      5-min Rain = 0
KPA1 151927Z 01015KT 12/M03 A3004 RMK A01 T01201026  RH  036%=      5-min Rain = 0
KPA1 151928Z 01013KT 12/M03 A3004 RMK A01 T01191028  RH  036%=      5-min Rain = 0
KPA1 151929Z 01013KT 12/M03 A3004 RMK A01 T01191026  RH  036%=      5-min Rain = 0
KPA1 151930Z 00013KT 12/M03 A3004 RMK A01 T01201025  RH  036%=      5-min Rain = 0
KPA1 151931Z 36016KT 12/M03 A3004 RMK A01 T01211025  RH  036%=      5-min Rain = 0
KPA1 151932Z 01013KT 12/M03 A3004 RMK A01 T01201027  RH  036%=      5-min Rain = 0
KPA1 151933Z 02014KT 12/M03 A3004 RMK A01 T01211025  RH  036%=      5-min Rain = 0
KPA1 151934Z 03015KT 12/M03 A3004 RMK A01 T01221026  RH  036%=      5-min Rain = 0
KPA1 151935Z 36015KT 12/M03 A3004 RMK A01 T01231026  RH  035%=      5-min Rain = 0
KPA1 151936Z 36012KT 12/M03 A3004 RMK A01 T01221028  RH  035%=      5-min Rain = 0
KPA1 151937Z 02012KT 12/M02 A3004 RMK A01 T01231024  RH  036%=      5-min Rain = 0
KPA1 151938Z 03013KT 13/M02 A3004 RMK A01 T01271024  RH  035%=      5-min Rain = 0
KPA1 151939Z 02012KT 13/M02 A3004 RMK A01 T01281024  RH  035%=      5-min Rain = 0
KPA1 151940Z 03012KT 13/M02 A3004 RMK A01 T01291022  RH  035%=      5-min Rain = 0
KPA1 151941Z 02014KT 13/M02 A3004 RMK A01 T01301023  RH  035%=      5-min Rain = 0
KPA1 151942Z 00013KT 13/M02 A3004 RMK A01 T01291024  RH  035%=      5-min Rain = 0
KPA1 151943Z 00015KT 13/M03 A3004 RMK A01 T01251027  RH  035%=      5-min Rain = 0
KPA1 151944Z 00016KT 12/M03 A3004 RMK A01 T01231028  RH  035%=      5-min Rain = 0
KPA1 151945Z 00016KT 12/M03 A3004 RMK A01 T01221027  RH  035%=      5-min Rain = 0
KPA1 151946Z 01014KT 12/M03 A3004 RMK A01 T01231029  RH  035%=      5-min Rain = 0
KPA1 151947Z 01014KT 12/M03 A3004 RMK A01 T01231029  RH  035%=      5-min Rain = 0
KPA1 151948Z 02014KT 12/M03 A3004 RMK A01 T01231029  RH  035%=      5-min Rain = 0
KPA1 151949Z 03015G20KT 13/M03 A3003 RMK A01 T01251027  RH  035%=      5-min Rain = 0
KPA1 151950Z 03012KT 13/M03 A3003 RMK A01 T01261028  RH  034%=      5-min Rain = 0
KPA1 151951Z 02013KT 13/M03 A3003 RMK A01 T01251026  RH  035%=      5-min Rain = 0
KPA1 151952Z 02012KT 13/M02 A3003 RMK A01 T01271023  RH  035%=      5-min Rain = 0
KPA1 151953Z 01013KT 13/M02 A3003 RMK A01 T01291024  RH  035%=      5-min Rain = 0
KPA1 151954Z 03010KT 13/M02 A3003 RMK A01 T01291023  RH  035%=      5-min Rain = 0
KPA1 151955Z 02011G16KT 13/M03 A3003 RMK A01 T01301025  RH  034%=      5-min Rain = 0
KPA1 151956Z 01014KT 13/M03 A3003 RMK A01 T01311025  RH  034%=      5-min Rain = 0
KPA1 151957Z 02012KT 13/M03 A3003 RMK A01 T01291028  RH  034%=      5-min Rain = 0
KPA1 151958Z 01015KT 13/M03 A3004 RMK A01 T01291026  RH  034%=      5-min Rain = 0
KPA1 151959Z 02013KT 13/M03 A3004 RMK A01 T01281028  RH  034%=      5-min Rain = 0
KPA1 152000Z 02014KT 13/M03 A3004 RMK A01 T01281027  RH  034%=      5-min Rain = 0
KPA1 152001Z 02014KT 13/M03 A3004 RMK A01 T01271027  RH  034%=      5-min Rain = 0
KPA1 152002Z 02011KT 13/M03 A3004 RMK A01 T01271027  RH  034%=      5-min Rain = 0
KPA1 152003Z 36013KT 13/M03 A3004 RMK A01 T01261027  RH  034%=      5-min Rain = 0
KPA1 152004Z 00013KT 13/M03 A3004 RMK A01 T01261025  RH  035%=      5-min Rain = 0
KPA1 152005Z 00011KT 13/M03 A3004 RMK A01 T01271026  RH  034%=      5-min Rain = 0
KPA1 152006Z 35011KT 13/M02 A3004 RMK A01 T01281024  RH  035%=      5-min Rain = 0
KPA1 152007Z 36014KT 13/M02 A3004 RMK A01 T01291023  RH  035%=      5-min Rain = 0
KPA1 152008Z 35014KT 13/M02 A3004 RMK A01 T01301023  RH  034%=      5-min Rain = 0
KPA1 152009Z 00013KT 13/M02 A3004 RMK A01 T01311024  RH  034%=      5-min Rain = 0
KPA1 152010Z 01014KT 13/M03 A3004 RMK A01 T01311027  RH  033%=      5-min Rain = 0
KPA1 152011Z 01012KT 13/M03 A3004 RMK A01 T01291028  RH  033%=      5-min Rain = 0
KPA1 152012Z 36012KT 13/M03 A3003 RMK A01 T01291029  RH  033%=      5-min Rain = 0
KPA1 152013Z 36011KT 13/M03 A3003 RMK A01 T01281030  RH  033%=      5-min Rain = 0
KPA1 152014Z 01012KT 13/M03 A3003 RMK A01 T01281030  RH  033%=      5-min Rain = 0
KPA1 152015Z 03015KT 13/M03 A3003 RMK A01 T01281028  RH  034%=      5-min Rain = 0
KPA1 152016Z 02014KT 13/M03 A3003 RMK A01 T01291028  RH  033%=      5-min Rain = 0
KPA1 152017Z 02012KT 13/M03 A3003 RMK A01 T01281028  RH  034%=      5-min Rain = 0
KPA1 152018Z 02011G17KT 13/M03 A3003 RMK A01 T01271029  RH  034%=      5-min Rain = 0
KPA1 152019Z 03016KT 13/M03 A3003 RMK A01 T01291025  RH  034%=      5-min Rain = 0
KPA1 152020Z 02013KT 13/M03 A3003 RMK A01 T01291028  RH  033%=      5-min Rain = 0
KPA1 152021Z 03012KT 13/M03 A3003 RMK A01 T01291029  RH  033%=      5-min Rain = 0
KPA1 152022Z 03009KT 13/M03 A3003 RMK A01 T01281031  RH  033%=      5-min Rain = 0
KPA1 152023Z 03013KT 13/M03 A3003 RMK A01 T01291025  RH  034%=      5-min Rain = 0
KPA1 152024Z 02014KT 13/M03 A3003 RMK A01 T01301029  RH  033%=      5-min Rain = 0
KPA1 152025Z 02013KT 13/M03 A3003 RMK A01 T01281030  RH  033%=      5-min Rain = 0
KPA1 152026Z 02012KT 13/M03 A3003 RMK A01 T01271030  RH  033%=      5-min Rain = 0
KPA1 152027Z 02013KT 13/M03 A3003 RMK A01 T01281027  RH  034%=      5-min Rain = 0
KPA1 152028Z 03010KT 13/M03 A3003 RMK A01 T01301029  RH  033%=      5-min Rain = 0
KPA1 152029Z 04010KT 13/M03 A3003 RMK A01 T01311026  RH  033%=      5-min Rain = 0
KPA1 152030Z 03012G17KT 13/M03 A3003 RMK A01 T01321026  RH  033%=      5-min Rain = 0
KPA1 152031Z 02013KT 13/M03 A3003 RMK A01 T01321027  RH  033%=      5-min Rain = 0
KPA1 152032Z 03011KT 13/M03 A3003 RMK A01 T01311029  RH  033%=      5-min Rain = 0
KPA1 152033Z 03010KT 13/M03 A3003 RMK A01 T01301027  RH  033%=      5-min Rain = 0
KPA1 152034Z 01010KT 13/M03 A3003 RMK A01 T01321026  RH  033%=      5-min Rain = 0
KPA1 152035Z 04009KT 13/M03 A3003 RMK A01 T01311026  RH  034%=      5-min Rain = 0
KPA1 152036Z 03009KT 13/M03 A3003 RMK A01 T01311026  RH  034%=      5-min Rain = 0
KPA1 152037Z 03014KT 13/M02 A3003 RMK A01 T01311023  RH  034%=      5-min Rain = 0
KPA1 152038Z 02014KT 13/M03 A3003 RMK A01 T01321025  RH  034%=      5-min Rain = 0
KPA1 152039Z 02014KT 13/M03 A3003 RMK A01 T01301025  RH  034%=      5-min Rain = 0
KPA1 152040Z 02013KT 13/M03 A3003 RMK A01 T01291026  RH  034%=      5-min Rain = 0
KPA1 152041Z 01012KT 13/M02 A3003 RMK A01 T01301023  RH  034%=      5-min Rain = 0
KPA1 152042Z 00013KT 13/M02 A3003 RMK A01 T01311024  RH  034%=      5-min Rain = 0
KPA1 152043Z 02011KT 13/M02 A3003 RMK A01 T01311022  RH  034%=      5-min Rain = 0
KPA1 152044Z 02013KT 13/M02 A3003 RMK A01 T01331022  RH  034%=      5-min Rain = 0
KPA1 152045Z 02010KT 13/M03 A3003 RMK A01 T01301028  RH  033%=      5-min Rain = 0
KPA1 152046Z 02009KT 13/M03 A3003 RMK A01 T01291025  RH  034%=      5-min Rain = 0
KPA1 152047Z 01011KT 13/M03 A3003 RMK A01 T01301026  RH  034%=      5-min Rain = 0
KPA1 152048Z 02014KT 13/M02 A3003 RMK A01 T01311023  RH  034%=      5-min Rain = 0
KPA1 152049Z 02011KT 13/M03 A3003 RMK A01 T01321026  RH  033%=      5-min Rain = 0
KPA1 152050Z 02010KT 13/M03 A3003 RMK A01 T01291030  RH  033%=      5-min Rain = 0
KPA1 152051Z 02011KT 13/M03 A3003 RMK A01 T01271028  RH  034%=      5-min Rain = 0
KPA1 152052Z 01012KT 13/M03 A3003 RMK A01 T01291026  RH  034%=      5-min Rain = 0
KPA1 152053Z 00011KT 13/M03 A3003 RMK A01 T01301025  RH  034%=      5-min Rain = 0
KPA1 152054Z 02009KT 13/M03 A3003 RMK A01 T01291026  RH  034%=      5-min Rain = 0
KPA1 152055Z 02009KT 13/M03 A3003 RMK A01 T01291027  RH  034%=      5-min Rain = 0
KPA1 152056Z 01009KT 13/M03 A3003 RMK A01 T01281025  RH  034%=      5-min Rain = 0
KPA1 152057Z 02014KT 13/M03 A3003 RMK A01 T01291025  RH  034%=      5-min Rain = 0
KPA1 152058Z 03011KT 13/M02 A3002 RMK A01 T01301024  RH  034%=      5-min Rain = 0
KPA1 152059Z 03010KT 13/M02 A3002 RMK A01 T01331021  RH  034%=      5-min Rain = 0
KPA1 152100Z 03009KT 14/M03 A3002 RMK A01 T01351025  RH  033%=      5-min Rain = 0
KPA1 152101Z 05010KT 13/M02 A3002 RMK A01 T01321023  RH  034%=      5-min Rain = 0
KPA1 152102Z 04011KT 13/M02 A3002 RMK A01 T01341022  RH  034%=      5-min Rain = 0
KPA1 152103Z 04012KT 13/M03 A3002 RMK A01 T01331025  RH  033%=      5-min Rain = 0
KPA1 152104Z 03012KT 13/M03 A3002 RMK A01 T01311026  RH  034%=      5-min Rain = 0
KPA1 152105Z 02011KT 13/M03 A3002 RMK A01 T01301026  RH  034%=      5-min Rain = 0
KPA1 152106Z 02008KT 13/M03 A3002 RMK A01 T01301026  RH  034%=      5-min Rain = 0
KPA1 152107Z 02012KT 13/M02 A3002 RMK A01 T01301024  RH  034%=      5-min Rain = 0
KPA1 152108Z 03012KT 13/M02 A3002 RMK A01 T01311024  RH  034%=      5-min Rain = 0
KPA1 152109Z 03010KT 13/M03 A3002 RMK A01 T01301026  RH  034%=      5-min Rain = 0
KPA1 152110Z 05011KT 13/M03 A3003 RMK A01 T01291025  RH  034%=      5-min Rain = 0
KPA1 152111Z 04011KT 13/M02 A3003 RMK A01 T01301024  RH  034%=      5-min Rain = 0
KPA1 152112Z 03011KT 13/M03 A3003 RMK A01 T01301025  RH  034%=      5-min Rain = 0
KPA1 152113Z 04010KT 13/M03 A3002 RMK A01 T01301025  RH  034%=      5-min Rain = 0
KPA1 152114Z 04008KT 13/M02 A3002 RMK A01 T01311023  RH  034%=      5-min Rain = 0
KPA1 152115Z 04008KT 13/M03 A3002 RMK A01 T01311025  RH  034%=      5-min Rain = 0
KPA1 152116Z 03007KT 13/M02 A3002 RMK A01 T01311024  RH  034%=      5-min Rain = 0
KPA1 152117Z 02012KT 13/M02 A3002 RMK A01 T01341022  RH  034%=      5-min Rain = 0
KPA1 152118Z 02012KT 13/M03 A3002 RMK A01 T01331025  RH  033%=      5-min Rain = 0
KPA1 152119Z 03010KT 13/M03 A3002 RMK A01 T01301026  RH  034%=      5-min Rain = 0
KPA1 152120Z 05010KT 13/M02 A3002 RMK A01 T01301024  RH  034%=      5-min Rain = 0
KPA1 152121Z 02010KT 13/M02 A3002 RMK A01 T01311022  RH  035%=      5-min Rain = 0
KPA1 152122Z 01010KT 13/M02 A3002 RMK A01 T01341020  RH  035%=      5-min Rain = 0
KPA1 152123Z 01008G13KT 14/M02 A3002 RMK A01 T01351023  RH  033%=      5-min Rain = 0
KPA1 152124Z 03013KT 13/M02 A3002 RMK A01 T01331024  RH  034%=      5-min Rain = 0
KPA1 152125Z 03012KT 13/M03 A3002 RMK A01 T01311026  RH  033%=      5-min Rain = 0
KPA1 152126Z 02010KT 13/M03 A3002 RMK A01 T01291027  RH  034%=      5-min Rain = 0
KPA1 152127Z 02010KT 13/M03 A3002 RMK A01 T01291027  RH  034%=      5-min Rain = 0
KPA1 152128Z 02007KT 13/M03 A3002 RMK A01 T01281027  RH  034%=      5-min Rain = 0
KPA1 152129Z 05010KT 13/M02 A3002 RMK A01 T01311022  RH  035%=      5-min Rain = 0
KPA1 152130Z 05008KT 13/M03 A3002 RMK A01 T01321026  RH  033%=      5-min Rain = 0
KPA1 152131Z 03009KT 13/M03 A3002 RMK A01 T01321026  RH  033%=      5-min Rain = 0
KPA1 152132Z 02011KT 13/M02 A3002 RMK A01 T01321024  RH  034%=      5-min Rain = 0
KPA1 152133Z 02009KT 13/M03 A3003 RMK A01 T01321025  RH  034%=      5-min Rain = 0
KPA1 152134Z 00010KT 13/M02 A3002 RMK A01 T01321024  RH  034%=      5-min Rain = 0
KPA1 152135Z 00010KT 13/M03 A3002 RMK A01 T01311027  RH  033%=      5-min Rain = 0
KPA1 152136Z 02010KT 13/M03 A3002 RMK A01 T01291028  RH  033%=      5-min Rain = 0
KPA1 152137Z 04009KT 13/M03 A3003 RMK A01 T01291026  RH  034%=      5-min Rain = 0
KPA1 152138Z 05012KT 13/M03 A3002 RMK A01 T01311026  RH  034%=      5-min Rain = 0
KPA1 152139Z 04011KT 13/M03 A3002 RMK A01 T01311028  RH  033%=      5-min Rain = 0
KPA1 152140Z 04011KT 13/M03 A3002 RMK A01 T01311029  RH  033%=      5-min Rain = 0
KPA1 152141Z 05009KT 13/M03 A3002 RMK A01 T01311027  RH  033%=      5-min Rain = 0
KPA1 152142Z 03009KT 13/M03 A3002 RMK A01 T01321027  RH  033%=      5-min Rain = 0
KPA1 152143Z 04009KT 13/M03 A3002 RMK A01 T01321028  RH  033%=      5-min Rain = 0
KPA1 152144Z 03009KT 13/M03 A3002 RMK A01 T01321027  RH  033%=      5-min Rain = 0
KPA1 152145Z 03007KT 13/M03 A3002 RMK A01 T01321028  RH  033%=      5-min Rain = 0
KPA1 152146Z 04008KT 13/M03 A3002 RMK A01 T01311029  RH  033%=      5-min Rain = 0
KPA1 152147Z 02010KT 13/M03 A3002 RMK A01 T01321027  RH  033%=      5-min Rain = 0
KPA1 152148Z 03010KT 13/M03 A3002 RMK A01 T01321026  RH  033%=      5-min Rain = 0
KPA1 152149Z 02009KT 13/M03 A3002 RMK A01 T01321028  RH  033%=      5-min Rain = 0
KPA1 152150Z 02009KT 13/M03 A3002 RMK A01 T01321027  RH  033%=      5-min Rain = 0
KPA1 152151Z 02011KT 13/M03 A3002 RMK A01 T01321026  RH  033%=      5-min Rain = 0
KPA1 152152Z 03010KT 13/M03 A3003 RMK A01 T01331026  RH  033%=      5-min Rain = 0
KPA1 152153Z 02009KT 13/M03 A3003 RMK A01 T01331025  RH  033%=      5-min Rain = 0
KPA1 152154Z 04008KT 13/M03 A3003 RMK A01 T01321026  RH  033%=      5-min Rain = 0
KPA1 152155Z 04009KT 13/M03 A3003 RMK A01 T01321027  RH  033%=      5-min Rain = 0
KPA1 152156Z 05009KT 13/M03 A3003 RMK A01 T01331026  RH  033%=      5-min Rain = 0
KPA1 152157Z 06007KT 13/M03 A3003 RMK A01 T01331026  RH  033%=      5-min Rain = 0
KPA1 152158Z 05008KT 13/M02 A3003 RMK A01 T01331024  RH  034%=      5-min Rain = 0
KPA1 152159Z 05007KT 13/M03 A3003 RMK A01 T01341026  RH  033%=      5-min Rain = 0
KPA1 152200Z 04008KT 13/M03 A3003 RMK A01 T01331026  RH  033%=      5-min Rain = 0
KPA1 152201Z 05009KT 13/M02 A3003 RMK A01 T01331024  RH  033%=      5-min Rain = 0
KPA1 152202Z 04009KT 13/M02 A3003 RMK A01 T01341024  RH  033%=      5-min Rain = 0
KPA1 152203Z 03010KT 14/M02 A3003 RMK A01 T01361020  RH  034%=      5-min Rain = 0
KPA1 152204Z 04009KT 14/M02 A3003 RMK A01 T01361024  RH  033%=      5-min Rain = 0
KPA1 152205Z 04008KT 13/M03 A3003 RMK A01 T01321026  RH  033%=      5-min Rain = 0
KPA1 152206Z 04007KT 13/M03 A3003 RMK A01 T01321025  RH  034%=      5-min Rain = 0
KPA1 152207Z 02008KT 13/M02 A3003 RMK A01 T01331024  RH  034%=      5-min Rain = 0
KPA1 152208Z 02008KT 13/M03 A3003 RMK A01 T01321027  RH  033%=      5-min Rain = 0
KPA1 152209Z 02008KT 13/M03 A3003 RMK A01 T01311028  RH  033%=      5-min Rain = 0
KPA1 152210Z 01009KT 13/M03 A3003 RMK A01 T01301027  RH  034%=      5-min Rain = 0
KPA1 152211Z 02008KT 13/M03 A3003 RMK A01 T01301026  RH  034%=      5-min Rain = 0
KPA1 152212Z 03008KT 13/M03 A3003 RMK A01 T01321025  RH  034%=      5-min Rain = 0
KPA1 152213Z 01007KT 13/M03 A3003 RMK A01 T01321027  RH  033%=      5-min Rain = 0
KPA1 152214Z 03009KT 13/M02 A3003 RMK A01 T01321024  RH  034%=      5-min Rain = 0
KPA1 152215Z 03011KT 13/M03 A3003 RMK A01 T01321027  RH  033%=      5-min Rain = 0
KPA1 152216Z 02012KT 13/M03 A3004 RMK A01 T01321027  RH  033%=      5-min Rain = 0
KPA1 152217Z 02010KT 13/M03 A3004 RMK A01 T01301030  RH  033%=      5-min Rain = 0
KPA1 152218Z 01010KT 13/M03 A3004 RMK A01 T01301029  RH  033%=      5-min Rain = 0
KPA1 152219Z 01010KT 13/M03 A3004 RMK A01 T01291028  RH  033%=      5-min Rain = 0
KPA1 152220Z 02008KT 13/M03 A3004 RMK A01 T01311027  RH  033%=      5-min Rain = 0
KPA1 152221Z 02006KT 13/M03 A3004 RMK A01 T01301027  RH  033%=      5-min Rain = 0
KPA1 152222Z 02007KT 13/M03 A3004 RMK A01 T01321025  RH  033%=      5-min Rain = 0
KPA1 152223Z 02008KT 13/M03 A3004 RMK A01 T01331027  RH  033%=      5-min Rain = 0
KPA1 152224Z 03009KT 13/M03 A3004 RMK A01 T01331027  RH  033%=      5-min Rain = 0
KPA1 152225Z 03009KT 13/M03 A3004 RMK A01 T01321028  RH  033%=      5-min Rain = 0
KPA1 152226Z 03008KT 13/M03 A3004 RMK A01 T01301031  RH  032%=      5-min Rain = 0
KPA1 152227Z 03006KT 13/M03 A3003 RMK A01 T01291032  RH  033%=      5-min Rain = 0
KPA1 152228Z 03007KT 13/M03 A3003 RMK A01 T01281030  RH  033%=      5-min Rain = 0
KPA1 152229Z 03006KT 13/M03 A3003 RMK A01 T01291030  RH  033%=      5-min Rain = 0
KPA1 152230Z 05007KT 13/M03 A3003 RMK A01 T01291030  RH  033%=      5-min Rain = 0
KPA1 152231Z 04005KT 13/M03 A3003 RMK A01 T01281030  RH  033%=      5-min Rain = 0
KPA1 152232Z 03004KT 13/M03 A3003 RMK A01 T01281029  RH  033%=      5-min Rain = 0
KPA1 152233Z 04005KT 13/M03 A3003 RMK A01 T01281029  RH  034%=      5-min Rain = 0
KPA1 152234Z 04008KT 13/M03 A3004 RMK A01 T01301026  RH  034%=      5-min Rain = 0
KPA1 152235Z 05008KT 13/M03 A3004 RMK A01 T01311029  RH  033%=      5-min Rain = 0
KPA1 152236Z 04006KT 13/M03 A3004 RMK A01 T01301029  RH  033%=      5-min Rain = 0
KPA1 152237Z 04007KT 13/M03 A3004 RMK A01 T01301028  RH  033%=      5-min Rain = 0
KPA1 152238Z 03007KT 13/M03 A3004 RMK A01 T01291030  RH  033%=      5-min Rain = 0
KPA1 152239Z 05006KT 13/M03 A3004 RMK A01 T01281031  RH  033%=      5-min Rain = 0
KPA1 152240Z 06003KT 13/M03 A3004 RMK A01 T01271031  RH  033%=      5-min Rain = 0
KPA1 152241Z 03006KT 13/M03 A3004 RMK A01 T01281029  RH  034%=      5-min Rain = 0
KPA1 152242Z 04007KT 13/M03 A3004 RMK A01 T01281028  RH  034%=      5-min Rain = 0
KPA1 152243Z 03008KT 13/M03 A3004 RMK A01 T01291026  RH  034%=      5-min Rain = 0
KPA1 152244Z 02007KT 13/M03 A3004 RMK A01 T01301026  RH  034%=      5-min Rain = 0
KPA1 152245Z 02008KT 13/M03 A3004 RMK A01 T01301026  RH  034%=      5-min Rain = 0
KPA1 152246Z 02008KT 13/M03 A3004 RMK A01 T01301028  RH  033%=      5-min Rain = 0
KPA1 152247Z 03008KT 13/M03 A3004 RMK A01 T01291028  RH  033%=      5-min Rain = 0
KPA1 152248Z 03006KT 13/M03 A3004 RMK A01 T01291028  RH  033%=      5-min Rain = 0
KPA1 152249Z 03006KT 13/M03 A3004 RMK A01 T01291028  RH  033%=      5-min Rain = 0
KPA1 152250Z 02006KT 13/M03 A3004 RMK A01 T01291030  RH  033%=      5-min Rain = 0
KPA1 152251Z 02005KT 13/M03 A3004 RMK A01 T01281030  RH  033%=      5-min Rain = 0
KPA1 152252Z 05006KT 13/M03 A3004 RMK A01 T01281029  RH  033%=      5-min Rain = 0
KPA1 152253Z 05006KT 13/M03 A3004 RMK A01 T01281030  RH  033%=      5-min Rain = 0
KPA1 152254Z 04006KT 13/M03 A3004 RMK A01 T01281031  RH  033%=      5-min Rain = 0
KPA1 152255Z 04006KT 13/M03 A3005 RMK A01 T01281030  RH  033%=      5-min Rain = 0
KPA1 152256Z 04006KT 13/M03 A3005 RMK A01 T01281029  RH  033%=      5-min Rain = 0
KPA1 152257Z 05008KT 13/M03 A3005 RMK A01 T01291028  RH  034%=      5-min Rain = 0
KPA1 152258Z 05008KT 13/M03 A3005 RMK A01 T01291031  RH  033%=      5-min Rain = 0
KPA1 152259Z 04007KT 13/M03 A3005 RMK A01 T01281029  RH  033%=      5-min Rain = 0
KPA1 152300Z 04007KT 13/M03 A3005 RMK A01 T01281030  RH  033%=      5-min Rain = 0
KPA1 152301Z 05006KT 13/M03 A3005 RMK A01 T01281031  RH  033%=      5-min Rain = 0
KPA1 152302Z 05006KT 13/M03 A3005 RMK A01 T01281032  RH  033%=      5-min Rain = 0
KPA1 152303Z 05006KT 13/M03 A3005 RMK A01 T01271031  RH  033%=      5-min Rain = 0
KPA1 152304Z 05008KT 13/M03 A3005 RMK A01 T01271031  RH  033%=      5-min Rain = 0
KPA1 152305Z 04007KT 13/M03 A3005 RMK A01 T01271030  RH  033%=      5-min Rain = 0
KPA1 152306Z 04006KT 13/M03 A3005 RMK A01 T01271030  RH  033%=      5-min Rain = 0
KPA1 152307Z 04007KT 13/M03 A3004 RMK A01 T01271032  RH  033%=      5-min Rain = 0
KPA1 152308Z 03007KT 13/M03 A3004 RMK A01 T01261032  RH  033%=      5-min Rain = 0
KPA1 152309Z 03006KT 13/M03 A3004 RMK A01 T01261031  RH  033%=      5-min Rain = 0
KPA1 152310Z 06005KT 13/M03 A3004 RMK A01 T01251029  RH  034%=      5-min Rain = 0
KPA1 152311Z 06006KT 13/M03 A3004 RMK A01 T01261029  RH  034%=      5-min Rain = 0
KPA1 152312Z 06005KT 13/M03 A3004 RMK A01 T01261030  RH  034%=      5-min Rain = 0
KPA1 152313Z 08006KT 13/M03 A3005 RMK A01 T01261028  RH  034%=      5-min Rain = 0
KPA1 152314Z 07007KT 13/M03 A3005 RMK A01 T01261029  RH  034%=      5-min Rain = 0
KPA1 152315Z 06007KT 13/M03 A3005 RMK A01 T01251027  RH  034%=      5-min Rain = 0
KPA1 152316Z 06006KT 13/M03 A3005 RMK A01 T01251028  RH  034%=      5-min Rain = 0
KPA1 152317Z 06005KT 13/M03 A3005 RMK A01 T01261028  RH  034%=      5-min Rain = 0
KPA1 152318Z 06007KT 13/M03 A3005 RMK A01 T01251029  RH  034%=      5-min Rain = 0
KPA1 152319Z 06006KT 13/M03 A3005 RMK A01 T01251029  RH  034%=      5-min Rain = 0
KPA1 152320Z 05004KT 13/M03 A3005 RMK A01 T01251027  RH  035%=      5-min Rain = 0
KPA1 152321Z 07005KT 13/M03 A3005 RMK A01 T01251028  RH  035%=      5-min Rain = 0
KPA1 152322Z 07006KT 12/M03 A3005 RMK A01 T01241028  RH  035%=      5-min Rain = 0
KPA1 152323Z 07006KT 12/M03 A3005 RMK A01 T01241029  RH  034%=      5-min Rain = 0
KPA1 152324Z 06005KT 12/M03 A3005 RMK A01 T01241027  RH  035%=      5-min Rain = 0
KPA1 152325Z 07005KT 12/M03 A3005 RMK A01 T01241027  RH  035%=      5-min Rain = 0
KPA1 152326Z 07006KT 12/M03 A3005 RMK A01 T01241027  RH  035%=      5-min Rain = 0
KPA1 152327Z 06005KT 12/M03 A3005 RMK A01 T01241028  RH  035%=      5-min Rain = 0
KPA1 152328Z 07004KT 12/M03 A3005 RMK A01 T01231030  RH  034%=      5-min Rain = 0
KPA1 152329Z 06005KT 12/M03 A3005 RMK A01 T01231029  RH  035%=      5-min Rain = 0
KPA1 152330Z 07004KT 12/M03 A3005 RMK A01 T01221028  RH  035%=      5-min Rain = 0
KPA1 152331Z 06005KT 12/M03 A3004 RMK A01 T01221028  RH  035%=      5-min Rain = 0
KPA1 152332Z 07005KT 12/M03 A3004 RMK A01 T01221028  RH  035%=      5-min Rain = 0
KPA1 152333Z 07006KT 12/M03 A3004 RMK A01 T01221028  RH  035%=      5-min Rain = 0
KPA1 152334Z 06006KT 12/M03 A3004 RMK A01 T01211027  RH  036%=      5-min Rain = 0
KPA1 152335Z 06006KT 12/M03 A3005 RMK A01 T01211026  RH  036%=      5-min Rain = 0
KPA1 152336Z 06006KT 12/M03 A3005 RMK A01 T01201025  RH  036%=      5-min Rain = 0
KPA1 152337Z 06006KT 12/M02 A3005 RMK A01 T01201023  RH  037%=      5-min Rain = 0
KPA1 152338Z 06006KT 12/M02 A3005 RMK A01 T01191023  RH  037%=      5-min Rain = 0
KPA1 152339Z 07005KT 12/M02 A3004 RMK A01 T01181024  RH  037%=      5-min Rain = 0
KPA1 152340Z 07005KT 12/M03 A3004 RMK A01 T01181025  RH  037%=      5-min Rain = 0
KPA1 152341Z 07005KT 12/M03 A3004 RMK A01 T01181025  RH  037%=      5-min Rain = 0
KPA1 152342Z 07004KT 12/M02 A3004 RMK A01 T01171024  RH  037%=      5-min Rain = 0
KPA1 152343Z 08005KT 12/M02 A3004 RMK A01 T01171023  RH  038%=      5-min Rain = 0
KPA1 152344Z 09005KT 12/M02 A3005 RMK A01 T01161022  RH  038%=      5-min Rain = 0
KPA1 152345Z 08005KT 12/M02 A3005 RMK A01 T01151022  RH  038%=      5-min Rain = 0
KPA1 152346Z 08005KT 12/M02 A3005 RMK A01 T01151023  RH  038%=      5-min Rain = 0
KPA1 152347Z 08006KT 11/M02 A3005 RMK A01 T01141023  RH  038%=      5-min Rain = 0
KPA1 152348Z 07006KT 11/M02 A3005 RMK A01 T01131024  RH  038%=      5-min Rain = 0
KPA1 152349Z 07006KT 11/M02 A3005 RMK A01 T01121024  RH  038%=      5-min Rain = 0
KPA1 152350Z 07005KT 11/M02 A3005 RMK A01 T01111024  RH  039%=      5-min Rain = 0
KPA1 152351Z 07005KT 11/M02 A3005 RMK A01 T01101023  RH  039%=      5-min Rain = 0
KPA1 152352Z 07005KT 11/M02 A3005 RMK A01 T01091023  RH  040%=      5-min Rain = 0
KPA1 152353Z 07005KT 11/M02 A3005 RMK A01 T01081022  RH  040%=      5-min Rain = 0
KPA1 152354Z 07005KT 11/M02 A3005 RMK A01 T01061022  RH  041%=      5-min Rain = 0
KPA1 152355Z 07005KT 11/M02 A3005 RMK A01 T01051022  RH  041%=      5-min Rain = 0
KPA1 152356Z 07005KT 10/M02 A3005 RMK A01 T01041021  RH  042%=      5-min Rain = 0
KPA1 152357Z 07005KT 10/M02 A3005 RMK A01 T01031021  RH  042%=      5-min Rain = 0
KPA1 152358Z 06005KT 10/M02 A3005 RMK A01 T01021022  RH  042%=      5-min Rain = 0
KPA1 152359Z 06005KT 10/M02 A3005 RMK A01 T01011021  RH  042%=      5-min Rain = 0
KPA1 160000Z 06005KT 10/M02 A3005 RMK A01 T01001021  RH  043%=      5-min Rain = 0
KPA1 160001Z 06005KT 10/M02 A3006 RMK A01 T00991021  RH  043%=      5-min Rain = 0
KPA1 160002Z 06004KT 10/M02 A3006 RMK A01 T00971021  RH  044%=      5-min Rain = 0
KPA1 160003Z 05004KT 10/M02 A3006 RMK A01 T00961022  RH  044%=      5-min Rain = 0
KPA1 160004Z 05004KT 10/M02 A3006 RMK A01 T00951022  RH  044%=      5-min Rain = 0
KPA1 160005Z 05004KT 09/M02 A3006 RMK A01 T00931022  RH  044%=      5-min Rain = 0
KPA1 160006Z 05005KT 09/M02 A3006 RMK A01 T00921022  RH  045%=      5-min Rain = 0
KPA1 160007Z 05005KT 09/M02 A3006 RMK A01 T00911022  RH  045%=      5-min Rain = 0
KPA1 160008Z 05005KT 09/M02 A3006 RMK A01 T00901023  RH  045%=      5-min Rain = 0
KPA1 160009Z 05004KT 09/M02 A3006 RMK A01 T00901024  RH  045%=      5-min Rain = 0
KPA1 160010Z 05004KT 09/M03 A3006 RMK A01 T00891025  RH  045%=      5-min Rain = 0
KPA1 160011Z 05004KT 09/M03 A3006 RMK A01 T00861026  RH  045%=      5-min Rain = 0
KPA1 160012Z 06004KT 09/M03 A3006 RMK A01 T00851026  RH  045%=      5-min Rain = 0
KPA1 160013Z 06004KT 09/M03 A3006 RMK A01 T00851025  RH  046%=      5-min Rain = 0
KPA1 160014Z 06004KT 09/M03 A3006 RMK A01 T00851025  RH  046%=      5-min Rain = 0
KPA1 160015Z 06005KT 09/M03 A3006 RMK A01 T00861025  RH  046%=      5-min Rain = 0
KPA1 160016Z 06005KT 08/M03 A3006 RMK A01 T00841025  RH  046%=      5-min Rain = 0
KPA1 160017Z 06005KT 08/M03 A3006 RMK A01 T00831025  RH  047%=      5-min Rain = 0
KPA1 160018Z 06005KT 08/M03 A3006 RMK A01 T00821025  RH  047%=      5-min Rain = 0
KPA1 160019Z 06005KT 08/M02 A3006 RMK A01 T00811023  RH  048%=      5-min Rain = 0
KPA1 160020Z 06005KT 08/M02 A3006 RMK A01 T00811023  RH  048%=      5-min Rain = 0
KPA1 160021Z 06005KT 08/M02 A3006 RMK A01 T00801024  RH  048%=      5-min Rain = 0
KPA1 160022Z 07005KT 08/M03 A3006 RMK A01 T00761026  RH  048%=      5-min Rain = 0
KPA1 160023Z 07005KT 08/M03 A3006 RMK A01 T00751025  RH  049%=      5-min Rain = 0
KPA1 160024Z 07005KT 07/M02 A3006 RMK A01 T00741024  RH  050%=      5-min Rain = 0
KPA1 160025Z 07004KT 07/M02 A3006 RMK A01 T00741022  RH  050%=      5-min Rain = 0
KPA1 160026Z 07004KT 08/M02 A3006 RMK A01 T00751021  RH  051%=      5-min Rain = 0
KPA1 160027Z 07004KT 08/M02 A3006 RMK A01 T00751020  RH  051%=      5-min Rain = 0
KPA1 160028Z 07004KT 07/M02 A3006 RMK A01 T00741021  RH  051%=      5-min Rain = 0
KPA1 160029Z 07004KT 07/M02 A3006 RMK A01 T00721021  RH  051%=      5-min Rain = 0
KPA1 160030Z 07005KT 07/M02 A3006 RMK A01 T00711021  RH  052%=      5-min Rain = 0
KPA1 160031Z 06004KT 07/M02 A3006 RMK A01 T00711020  RH  052%=      5-min Rain = 0
KPA1 160032Z 06004KT 07/M02 A3006 RMK A01 T00691021  RH  052%=      5-min Rain = 0
KPA1 160033Z 06004KT 07/M02 A3006 RMK A01 T00681021  RH  053%=      5-min Rain = 0
KPA1 160034Z 06005KT 07/M02 A3006 RMK A01 T00661020  RH  054%=      5-min Rain = 0
KPA1 160035Z 07005KT 07/M02 A3006 RMK A01 T00651021  RH  054%=      5-min Rain = 0
KPA1 160036Z 07004KT 06/M02 A3006 RMK A01 T00631022  RH  055%=      5-min Rain = 0
KPA1 160037Z 07004KT 06/M02 A3006 RMK A01 T00611023  RH  055%=      5-min Rain = 0
KPA1 160038Z 07004KT 06/M02 A3006 RMK A01 T00591024  RH  055%=      5-min Rain = 0
KPA1 160039Z 07004KT 06/M03 A3006 RMK A01 T00571026  RH  055%=      5-min Rain = 0
KPA1 160040Z 07004KT 06/M03 A3006 RMK A01 T00551025  RH  056%=      5-min Rain = 0
KPA1 160041Z 07004KT 05/M03 A3006 RMK A01 T00541025  RH  057%=      5-min Rain = 0
KPA1 160042Z 07004KT 05/M03 A3006 RMK A01 T00531025  RH  057%=      5-min Rain = 0
KPA1 160043Z 07004KT 05/M03 A3006 RMK A01 T00521026  RH  057%=      5-min Rain = 0
KPA1 160044Z 07004KT 05/M03 A3006 RMK A01 T00511026  RH  057%=      5-min Rain = 0
KPA1 160045Z 07004KT 05/M03 A3006 RMK A01 T00501027  RH  058%=      5-min Rain = 0
KPA1 160046Z 07004KT 05/M03 A3006 RMK A01 T00481027  RH  058%=      5-min Rain = 0
KPA1 160047Z 07004KT 05/M03 A3006 RMK A01 T00481026  RH  059%=      5-min Rain = 0
KPA1 160048Z 07004KT 05/M03 A3006 RMK A01 T00471025  RH  059%=      5-min Rain = 0
KPA1 160049Z 07004KT 05/M02 A3006 RMK A01 T00481024  RH  060%=      5-min Rain = 0
KPA1 160050Z 07004KT 05/M02 A3006 RMK A01 T00481024  RH  059%=      5-min Rain = 0
KPA1 160051Z 08004KT 05/M02 A3006 RMK A01 T00471024  RH  060%=      5-min Rain = 0
KPA1 160052Z 08004KT 05/M02 A3006 RMK A01 T00461024  RH  060%=      5-min Rain = 0
KPA1 160053Z 08004KT 05/M02 A3006 RMK A01 T00461024  RH  061%=      5-min Rain = 0
KPA1 160054Z 08004KT 05/M02 A3006 RMK A01 T00461023  RH  061%=      5-min Rain = 0
KPA1 160055Z 08004KT 05/M02 A3006 RMK A01 T00461024  RH  060%=      5-min Rain = 0
KPA1 160056Z 08004KT 05/M03 A3006 RMK A01 T00451026  RH  060%=      5-min Rain = 0
KPA1 160057Z 08004KT 04/M03 A3006 RMK A01 T00431026  RH  061%=      5-min Rain = 0
KPA1 160058Z 07004KT 04/M03 A3005 RMK A01 T00421026  RH  061%=      5-min Rain = 0
KPA1 160059Z 07005KT 04/M02 A3005 RMK A01 T00431023  RH  062%=      5-min Rain = 0
KPA1 160100Z 07005KT 05/M02 A3005 RMK A01 T00451022  RH  062%=      5-min Rain = 0
KPA1 160101Z 07005KT 05/M02 A3005 RMK A01 T00461023  RH  061%=      5-min Rain = 0
KPA1 160102Z 07005KT 05/M02 A3005 RMK A01 T00471024  RH  060%=      5-min Rain = 0
KPA1 160103Z 07005KT 05/M03 A3005 RMK A01 T00461026  RH  059%=      5-min Rain = 0
KPA1 160104Z 07005KT 04/M03 A3005 RMK A01 T00441027  RH  060%=      5-min Rain = 0
KPA1 160105Z 07005KT 04/M03 A3005 RMK A01 T00431026  RH  061%=      5-min Rain = 0
KPA1 160106Z 07005KT 04/M03 A3005 RMK A01 T00421027  RH  061%=      5-min Rain = 0
KPA1 160107Z 07005KT 04/M03 A3005 RMK A01 T00401029  RH  061%=      5-min Rain = 0
KPA1 160108Z 07005KT 04/M03 A3005 RMK A01 T00381030  RH  061%=      5-min Rain = 0
KPA1 160109Z 07005KT 04/M03 A3005 RMK A01 T00361031  RH  062%=      5-min Rain = 0
KPA1 160110Z 07005KT 04/M03 A3005 RMK A01 T00351031  RH  062%=      5-min Rain = 0
KPA1 160111Z 07005KT 03/M03 A3006 RMK A01 T00341031  RH  062%=      5-min Rain = 0
KPA1 160112Z 07004KT 03/M03 A3006 RMK A01 T00331032  RH  062%=      5-min Rain = 0
KPA1 160113Z 07004KT 03/M03 A3006 RMK A01 T00321032  RH  063%=      5-min Rain = 0
KPA1 160114Z 07004KT 03/M03 A3006 RMK A01 T00311032  RH  063%=      5-min Rain = 0
KPA1 160115Z 07004KT 03/M03 A3006 RMK A01 T00301031  RH  064%=      5-min Rain = 0
KPA1 160116Z 07004KT 03/M03 A3006 RMK A01 T00301030  RH  065%=      5-min Rain = 0
KPA1 160117Z 07003KT 03/M03 A3006 RMK A01 T00301029  RH  065%=      5-min Rain = 0
KPA1 160118Z 07003KT 03/M03 A3006 RMK A01 T00311027  RH  065%=      5-min Rain = 0
KPA1 160119Z 07003KT 03/M03 A3006 RMK A01 T00321026  RH  066%=      5-min Rain = 0
KPA1 160120Z 07003KT 03/M03 A3006 RMK A01 T00331025  RH  066%=      5-min Rain = 0
KPA1 160121Z 07003KT 04/M02 A3006 RMK A01 T00351023  RH  066%=      5-min Rain = 0
KPA1 160122Z 07003KT 04/M02 A3006 RMK A01 T00381020  RH  066%=      5-min Rain = 0
KPA1 160123Z 07003KT 04/M02 A3006 RMK A01 T00411018  RH  066%=      5-min Rain = 0
KPA1 160124Z 07003KT 04/M02 A3006 RMK A01 T00431017  RH  065%=      5-min Rain = 0
KPA1 160125Z 07003KT 04/M02 A3006 RMK A01 T00441016  RH  065%=      5-min Rain = 0
KPA1 160126Z 07003KT 05/M02 A3006 RMK A01 T00451016  RH  065%=      5-min Rain = 0
KPA1 160127Z 06003KT 05/M02 A3006 RMK A01 T00461016  RH  064%=      5-min Rain = 0
KPA1 160128Z 06003KT 05/M02 A3006 RMK A01 T00461015  RH  064%=      5-min Rain = 0
KPA1 160129Z 06003KT 05/M02 A3006 RMK A01 T00461015  RH  065%=      5-min Rain = 0
KPA1 160130Z 06003KT 05/M02 A3006 RMK A01 T00451015  RH  065%=      5-min Rain = 0
KPA1 160131Z 06003KT 05/M01 A3006 RMK A01 T00451014  RH  065%=      5-min Rain = 0
KPA1 160132Z 06004KT 04/M02 A3006 RMK A01 T00441015  RH  066%=      5-min Rain = 0
KPA1 160133Z 06004KT 04/M02 A3006 RMK A01 T00421017  RH  065%=      5-min Rain = 0
KPA1 160134Z 06004KT 04/M02 A3005 RMK A01 T00411020  RH  064%=      5-min Rain = 0
KPA1 160135Z 07004KT 04/M02 A3005 RMK A01 T00401021  RH  064%=      5-min Rain = 0
KPA1 160136Z 07005KT 04/M03 A3005 RMK A01 T00371025  RH  064%=      5-min Rain = 0
KPA1 160137Z 07004KT 03/M03 A3005 RMK A01 T00341029  RH  063%=      5-min Rain = 0
KPA1 160138Z 07005KT 03/M03 A3005 RMK A01 T00301031  RH  064%=      5-min Rain = 0
KPA1 160139Z 07005KT 03/M03 A3005 RMK A01 T00271031  RH  065%=      5-min Rain = 0
KPA1 160140Z 07005KT 03/M03 A3005 RMK A01 T00261031  RH  066%=      5-min Rain = 0
KPA1 160141Z 08005KT 03/M03 A3005 RMK A01 T00261031  RH  066%=      5-min Rain = 0
KPA1 160142Z 08005KT 03/M03 A3005 RMK A01 T00261029  RH  067%=      5-min Rain = 0
KPA1 160143Z 08005KT 03/M03 A3005 RMK A01 T00271030  RH  066%=      5-min Rain = 0
KPA1 160144Z 08005KT 03/M03 A3005 RMK A01 T00281029  RH  066%=      5-min Rain = 0
KPA1 160145Z 08005KT 03/M03 A3005 RMK A01 T00291029  RH  066%=      5-min Rain = 0
KPA1 160146Z 08005KT 03/M03 A3005 RMK A01 T00281030  RH  065%=      5-min Rain = 0
KPA1 160147Z 08006KT 03/M03 A3005 RMK A01 T00251032  RH  066%=      5-min Rain = 0
KPA1 160148Z 08006KT 02/M03 A3005 RMK A01 T00221034  RH  066%=      5-min Rain = 0
KPA1 160149Z 08006KT 02/M03 A3005 RMK A01 T00201034  RH  068%=      5-min Rain = 0
KPA1 160150Z 08006KT 02/M03 A3005 RMK A01 T00201032  RH  069%=      5-min Rain = 0
KPA1 160151Z 08006KT 02/M03 A3005 RMK A01 T00201031  RH  069%=      5-min Rain = 0
KPA1 160152Z 08006KT 02/M03 A3005 RMK A01 T00211029  RH  070%=      5-min Rain = 0
KPA1 160153Z 07006KT 02/M03 A3005 RMK A01 T00241026  RH  070%=      5-min Rain = 0
KPA1 160154Z 07006KT 02/M03 A3005 RMK A01 T00241027  RH  069%=      5-min Rain = 0
KPA1 160155Z 07006KT 02/M03 A3005 RMK A01 T00231029  RH  068%=      5-min Rain = 0
KPA1 160156Z 07006KT 02/M03 A3005 RMK A01 T00191030  RH  070%=      5-min Rain = 0
KPA1 160157Z 07006KT 02/M03 A3005 RMK A01 T00171026  RH  073%=      5-min Rain = 0
KPA1 160158Z 07007KT 02/M02 A3005 RMK A01 T00161024  RH  075%=      5-min Rain = 0
KPA1 160159Z 08007KT 02/M03 A3005 RMK A01 T00151025  RH  075%=      5-min Rain = 0
KPA1 160200Z 08007KT 01/M03 A3005 RMK A01 T00131027  RH  074%=      5-min Rain = 0
KPA1 160201Z 08007KT 01/M03 A3005 RMK A01 T00121027  RH  075%=      5-min Rain = 0
KPA1 160202Z 08007KT 01/M03 A3005 RMK A01 T00121026  RH  076%=      5-min Rain = 0
KPA1 160203Z 08007KT 01/M03 A3005 RMK A01 T00141025  RH  075%=      5-min Rain = 0
KPA1 160204Z 08007KT 02/M03 A3005 RMK A01 T00171025  RH  074%=      5-min Rain = 0
KPA1 160205Z 08007KT 02/M03 A3005 RMK A01 T00191025  RH  073%=      5-min Rain = 0
KPA1 160206Z 08007KT 02/M03 A3005 RMK A01 T00211025  RH  071%=      5-min Rain = 0
KPA1 160207Z 08007KT 02/M03 A3004 RMK A01 T00231026  RH  070%=      5-min Rain = 0
KPA1 160208Z 09007KT 02/M03 A3004 RMK A01 T00241026  RH  070%=      5-min Rain = 0
KPA1 160209Z 09007KT 02/M03 A3004 RMK A01 T00231027  RH  070%=      5-min Rain = 0
KPA1 160210Z 09008KT 02/M03 A3004 RMK A01 T00231027  RH  069%=      5-min Rain = 0
KPA1 160211Z 09008KT 03/M03 A3004 RMK A01 T00251027  RH  069%=      5-min Rain = 0
KPA1 160212Z 09008KT 03/M03 A3004 RMK A01 T00251027  RH  068%=      5-min Rain = 0
KPA1 160213Z 08008KT 03/M03 A3004 RMK A01 T00251028  RH  068%=      5-min Rain = 0
KPA1 160214Z 08008KT 03/M03 A3004 RMK A01 T00261027  RH  068%=      5-min Rain = 0
KPA1 160215Z 08008KT 03/M03 A3004 RMK A01 T00271026  RH  068%=      5-min Rain = 0
KPA1 160216Z 08008KT 03/M03 A3004 RMK A01 T00281025  RH  068%=      5-min Rain = 0
KPA1 160217Z 08008KT 03/M03 A3004 RMK A01 T00281025  RH  068%=      5-min Rain = 0
KPA1 160218Z 08008KT 03/M02 A3004 RMK A01 T00281024  RH  069%=      5-min Rain = 0
KPA1 160219Z 08008KT 03/M03 A3004 RMK A01 T00271025  RH  069%=      5-min Rain = 0
KPA1 160220Z 08008KT 03/M03 A3005 RMK A01 T00271025  RH  069%=      5-min Rain = 0
KPA1 160221Z 08007KT 03/M03 A3005 RMK A01 T00261025  RH  069%=      5-min Rain = 0
KPA1 160222Z 08007KT 03/M03 A3005 RMK A01 T00251027  RH  068%=      5-min Rain = 0
KPA1 160223Z 08008KT 02/M03 A3004 RMK A01 T00221030  RH  068%=      5-min Rain = 0
KPA1 160224Z 09008KT 02/M03 A3004 RMK A01 T00181034  RH  069%=      5-min Rain = 0
KPA1 160225Z 09008KT 01/M03 A3004 RMK A01 T00141033  RH  071%=      5-min Rain = 0
KPA1 160226Z 09008KT 01/M03 A3004 RMK A01 T00141031  RH  072%=      5-min Rain = 0
KPA1 160227Z 09008KT 02/M03 A3004 RMK A01 T00171028  RH  072%=      5-min Rain = 0
KPA1 160228Z 09008KT 02/M03 A3004 RMK A01 T00211027  RH  071%=      5-min Rain = 0
KPA1 160229Z 09008KT 02/M03 A3004 RMK A01 T00231028  RH  069%=      5-min Rain = 0
KPA1 160230Z 09008KT 02/M03 A3004 RMK A01 T00231029  RH  068%=      5-min Rain = 0
KPA1 160231Z 09009KT 02/M03 A3004 RMK A01 T00231030  RH  068%=      5-min Rain = 0
KPA1 160232Z 09009KT 02/M03 A3004 RMK A01 T00221030  RH  068%=      5-min Rain = 0
KPA1 160233Z 09009KT 02/M03 A3004 RMK A01 T00201031  RH  069%=      5-min Rain = 0
KPA1 160234Z 09009KT 02/M03 A3004 RMK A01 T00191031  RH  069%=      5-min Rain = 0
KPA1 160235Z 09009KT 02/M03 A3004 RMK A01 T00191030  RH  070%=      5-min Rain = 0
KPA1 160236Z 09009KT 02/M03 A3004 RMK A01 T00191031  RH  070%=      5-min Rain = 0
KPA1 160237Z 09009KT 02/M03 A3004 RMK A01 T00191031  RH  070%=      5-min Rain = 0
KPA1 160238Z 09009KT 02/M03 A3004 RMK A01 T00181031  RH  070%=      5-min Rain = 0
KPA1 160239Z 09009KT 02/M03 A3004 RMK A01 T00171032  RH  070%=      5-min Rain = 0
KPA1 160240Z 09009KT 02/M03 A3004 RMK A01 T00161032  RH  070%=      5-min Rain = 0
KPA1 160241Z 08009KT 02/M03 A3004 RMK A01 T00161032  RH  071%=      5-min Rain = 0
KPA1 160242Z 08009KT 01/M04 A3004 RMK A01 T00131036  RH  070%=      5-min Rain = 0
KPA1 160243Z 08008KT 01/M04 A3004 RMK A01 T00081041  RH  070%=      5-min Rain = 0
KPA1 160244Z 08008KT 00/M04 A3003 RMK A01 T00031043  RH  071%=      5-min Rain = 0
KPA1 160245Z 08008KT M00/M05 A3003 RMK A01 T10021045  RH  073%=      5-min Rain = 0
KPA1 160246Z 08008KT M01/M05 A3003 RMK A01 T10061046  RH  074%=      5-min Rain = 0
KPA1 160247Z 08008KT M01/M05 A3003 RMK A01 T10081045  RH  076%=      5-min Rain = 0
KPA1 160248Z 08009KT M01/M05 A3003 RMK A01 T10101045  RH  077%=      5-min Rain = 0
KPA1 160249Z 08009KT M01/M04 A3003 RMK A01 T10111044  RH  078%=      5-min Rain = 0
KPA1 160250Z 08009KT M01/M04 A3003 RMK A01 T10111043  RH  079%=      5-min Rain = 0
KPA1 160251Z 08009KT M01/M04 A3004 RMK A01 T10111042  RH  080%=      5-min Rain = 0
KPA1 160252Z 08008KT M01/M04 A3004 RMK A01 T10091040  RH  080%=      5-min Rain = 0
KPA1 160253Z 08008KT M01/M04 A3004 RMK A01 T10091040  RH  079%=      5-min Rain = 0
KPA1 160254Z 08008KT M01/M04 A3004 RMK A01 T10091041  RH  079%=      5-min Rain = 0
KPA1 160255Z 08009KT M01/M04 A3004 RMK A01 T10091040  RH  079%=      5-min Rain = 0
KPA1 160256Z 08009KT M01/M04 A3004 RMK A01 T10091041  RH  079%=      5-min Rain = 0
KPA1 160257Z 08008KT M01/M04 A3003 RMK A01 T10111042  RH  079%=      5-min Rain = 0
KPA1 160258Z 08008KT M01/M04 A3003 RMK A01 T10121043  RH  080%=      5-min Rain = 0
KPA1 160259Z 09009KT M01/M04 A3003 RMK A01 T10131043  RH  080%=      5-min Rain = 0
KPA1 160300Z 09009KT M01/M04 A3003 RMK A01 T10131043  RH  081%=      5-min Rain = 0
KPA1 160301Z 09009KT M01/M04 A3003 RMK A01 T10131041  RH  081%=      5-min Rain = 0
KPA1 160302Z 09009KT M01/M04 A3003 RMK A01 T10101038  RH  082%=      5-min Rain = 0
KPA1 160303Z 09009KT M01/M03 A3003 RMK A01 T10061033  RH  082%=      5-min Rain = 0
KPA1 160304Z 09009KT M00/M03 A3003 RMK A01 T10021030  RH  081%=      5-min Rain = 0
KPA1 160305Z 09009KT 00/M03 A3003 RMK A01 T00021028  RH  080%=      5-min Rain = 0
KPA1 160306Z 09009KT 01/M03 A3003 RMK A01 T00061028  RH  078%=      5-min Rain = 0
KPA1 160307Z 09009KT 01/M03 A3003 RMK A01 T00081028  RH  077%=      5-min Rain = 0
KPA1 160308Z 09010KT 01/M03 A3003 RMK A01 T00101028  RH  076%=      5-min Rain = 0
KPA1 160309Z 09010KT 01/M03 A3003 RMK A01 T00121028  RH  075%=      5-min Rain = 0
KPA1 160310Z 09010KT 01/M03 A3003 RMK A01 T00121029  RH  074%=      5-min Rain = 0
KPA1 160311Z 09010KT 01/M03 A3003 RMK A01 T00121030  RH  074%=      5-min Rain = 0
KPA1 160312Z 09010KT 01/M03 A3003 RMK A01 T00121030  RH  074%=      5-min Rain = 0
KPA1 160313Z 10010KT 01/M03 A3003 RMK A01 T00121030  RH  074%=      5-min Rain = 0
KPA1 160314Z 10010KT 01/M03 A3003 RMK A01 T00131028  RH  074%=      5-min Rain = 0
KPA1 160315Z 10010KT 02/M03 A3003 RMK A01 T00161027  RH  073%=      5-min Rain = 0
KPA1 160316Z 10010KT 02/M03 A3003 RMK A01 T00171027  RH  072%=      5-min Rain = 0
KPA1 160317Z 10009KT 02/M03 A3003 RMK A01 T00181027  RH  072%=      5-min Rain = 0
KPA1 160318Z 10010KT 02/M03 A3003 RMK A01 T00191027  RH  072%=      5-min Rain = 0
KPA1 160319Z 10009KT 02/M03 A3003 RMK A01 T00201027  RH  071%=      5-min Rain = 0
KPA1 160320Z 10008KT 02/M03 A3004 RMK A01 T00201028  RH  071%=      5-min Rain = 0
KPA1 160321Z 09007KT 02/M03 A3004 RMK A01 T00201028  RH  070%=      5-min Rain = 0
KPA1 160322Z 09007KT 02/M03 A3004 RMK A01 T00191030  RH  070%=      5-min Rain = 0
KPA1 160323Z 09007KT 02/M03 A3004 RMK A01 T00161031  RH  071%=      5-min Rain = 0
KPA1 160324Z 09007KT 01/M03 A3004 RMK A01 T00131033  RH  071%=      5-min Rain = 0
KPA1 160325Z 09006KT 01/M04 A3004 RMK A01 T00071039  RH  071%=      5-min Rain = 0
KPA1 160326Z 09007KT M00/M04 A3004 RMK A01 T10011044  RH  073%=      5-min Rain = 0
KPA1 160327Z 09007KT M01/M05 A3004 RMK A01 T10071046  RH  075%=      5-min Rain = 0
KPA1 160328Z 09007KT M01/M05 A3004 RMK A01 T10101046  RH  077%=      5-min Rain = 0
KPA1 160329Z 09007KT M01/M05 A3004 RMK A01 T10131045  RH  079%=      5-min Rain = 0
KPA1 160330Z 09007KT M01/M04 A3004 RMK A01 T10141043  RH  080%=      5-min Rain = 0
KPA1 160331Z 09008KT M01/M04 A3004 RMK A01 T10141043  RH  081%=      5-min Rain = 0
KPA1 160332Z 09007KT M02/M04 A3004 RMK A01 T10151043  RH  081%=      5-min Rain = 0
KPA1 160333Z 09007KT M02/M04 A3004 RMK A01 T10161043  RH  081%=      5-min Rain = 0
KPA1 160334Z 10008KT M02/M04 A3004 RMK A01 T10171044  RH  082%=      5-min Rain = 0
KPA1 160335Z 10008KT M02/M04 A3004 RMK A01 T10171044  RH  082%=      5-min Rain = 0
KPA1 160336Z 10008KT M02/M04 A3004 RMK A01 T10181044  RH  082%=      5-min Rain = 0
KPA1 160337Z 10008KT M02/M04 A3004 RMK A01 T10181044  RH  082%=      5-min Rain = 0
KPA1 160338Z 10008KT M02/M04 A3004 RMK A01 T10181044  RH  082%=      5-min Rain = 0
KPA1 160339Z 10008KT M02/M04 A3004 RMK A01 T10171044  RH  082%=      5-min Rain = 0
KPA1 160340Z 10008KT M02/M04 A3004 RMK A01 T10161043  RH  082%=      5-min Rain = 0
KPA1 160341Z 10009KT M02/M04 A3004 RMK A01 T10151042  RH  082%=      5-min Rain = 0
KPA1 160342Z 10008KT M01/M04 A3004 RMK A01 T10131040  RH  082%=      5-min Rain = 0
KPA1 160343Z 10008KT M01/M04 A3004 RMK A01 T10111039  RH  082%=      5-min Rain = 0
KPA1 160344Z 10008KT M01/M04 A3004 RMK A01 T10101039  RH  081%=      5-min Rain = 0
KPA1 160345Z 10008KT M01/M04 A3004 RMK A01 T10091039  RH  080%=      5-min Rain = 0
KPA1 160346Z 10008KT M01/M04 A3004 RMK A01 T10091041  RH  079%=      5-min Rain = 0
KPA1 160347Z 10008KT M01/M04 A3004 RMK A01 T10101043  RH  079%=      5-min Rain = 0
KPA1 160348Z 10008KT M01/M04 A3004 RMK A01 T10121043  RH  079%=      5-min Rain = 0
KPA1 160349Z 10007KT M01/M04 A3004 RMK A01 T10121042  RH  080%=      5-min Rain = 0
KPA1 160350Z 09008KT M01/M04 A3004 RMK A01 T10121042  RH  081%=      5-min Rain = 0
KPA1 160351Z 09008KT M01/M04 A3005 RMK A01 T10121042  RH  080%=      5-min Rain = 0
KPA1 160352Z 10008KT M01/M04 A3005 RMK A01 T10131044  RH  079%=      5-min Rain = 0
KPA1 160353Z 09008KT M01/M05 A3005 RMK A01 T10141045  RH  080%=      5-min Rain = 0
KPA1 160354Z 09008KT M02/M05 A3005 RMK A01 T10151045  RH  080%=      5-min Rain = 0
KPA1 160355Z 09008KT M02/M05 A3005 RMK A01 T10161046  RH  080%=      5-min Rain = 0
KPA1 160356Z 09008KT M02/M05 A3005 RMK A01 T10181047  RH  081%=      5-min Rain = 0
KPA1 160357Z 09007KT M02/M05 A3005 RMK A01 T10201048  RH  081%=      5-min Rain = 0
KPA1 160358Z 09007KT M02/M05 A3005 RMK A01 T10221049  RH  082%=      5-min Rain = 0
KPA1 160359Z 09008KT M02/M05 A3005 RMK A01 T10231048  RH  083%=      5-min Rain = 0
KPA1 160400Z 09007KT M02/M05 A3005 RMK A01 T10231047  RH  083%=      5-min Rain = 0
KPA1 160401Z 09007KT M02/M05 A3005 RMK A01 T10241048  RH  083%=      5-min Rain = 0
KPA1 160402Z 09007KT M02/M05 A3005 RMK A01 T10241048  RH  084%=      5-min Rain = 0
KPA1 160403Z 09007KT M02/M05 A3005 RMK A01 T10241048  RH  084%=      5-min Rain = 0
KPA1 160404Z 08007KT M02/M05 A3005 RMK A01 T10241048  RH  084%=      5-min Rain = 0
KPA1 160405Z 08007KT M03/M05 A3005 RMK A01 T10251048  RH  085%=      5-min Rain = 0
KPA1 160406Z 08006KT M03/M05 A3005 RMK A01 T10261047  RH  085%=      5-min Rain = 0
KPA1 160407Z 08006KT M03/M05 A3005 RMK A01 T10261047  RH  086%=      5-min Rain = 0
KPA1 160408Z 09007KT M03/M05 A3005 RMK A01 T10261046  RH  086%=      5-min Rain = 0
KPA1 160409Z 09007KT M03/M05 A3005 RMK A01 T10261046  RH  086%=      5-min Rain = 0
KPA1 160410Z 09007KT M03/M05 A3005 RMK A01 T10261046  RH  086%=      5-min Rain = 0
KPA1 160411Z 09007KT M03/M05 A3005 RMK A01 T10261047  RH  086%=      5-min Rain = 0
KPA1 160412Z 09007KT M03/M05 A3005 RMK A01 T10261047  RH  085%=      5-min Rain = 0
KPA1 160413Z 10008KT M03/M05 A3005 RMK A01 T10261048  RH  085%=      5-min Rain = 0
KPA1 160414Z 10008KT M03/M05 A3005 RMK A01 T10261048  RH  085%=      5-min Rain = 0
KPA1 160415Z 10008KT M03/M05 A3005 RMK A01 T10271049  RH  085%=      5-min Rain = 0
KPA1 160416Z 10008KT M03/M05 A3005 RMK A01 T10281051  RH  084%=      5-min Rain = 0
KPA1 160417Z 10008KT M03/M05 A3005 RMK A01 T10281050  RH  085%=      5-min Rain = 0
KPA1 160418Z 10008KT M03/M05 A3005 RMK A01 T10271047  RH  086%=      5-min Rain = 0
KPA1 160419Z 10008KT M02/M04 A3005 RMK A01 T10231043  RH  086%=      5-min Rain = 0
KPA1 160420Z 10008KT M02/M04 A3005 RMK A01 T10191039  RH  086%=      5-min Rain = 0
KPA1 160421Z 10008KT M02/M04 A3005 RMK A01 T10151036  RH  086%=      5-min Rain = 0
KPA1 160422Z 10009KT M01/M03 A3005 RMK A01 T10101032  RH  085%=      5-min Rain = 0
KPA1 160423Z 10009KT M01/M03 A3005 RMK A01 T10051029  RH  083%=      5-min Rain = 0
KPA1 160424Z 10009KT 00/03 A3005 RMK A01 T00-00-28  RH  082%=      5-min Rain = 0
KPA1 160425Z 10009KT 00/M03 A3005 RMK A01 T00041027  RH  080%=      5-min Rain = 0
KPA1 160426Z 11009KT 01/M03 A3005 RMK A01 T00071026  RH  078%=      5-min Rain = 0
KPA1 160427Z 11009KT 01/M03 A3005 RMK A01 T00101026  RH  077%=      5-min Rain = 0
KPA1 160428Z 11009KT 01/M03 A3005 RMK A01 T00121026  RH  076%=      5-min Rain = 0
KPA1 160429Z 12008KT 01/M03 A3005 RMK A01 T00131025  RH  075%=      5-min Rain = 0
KPA1 160430Z 12008KT 01/M03 A3005 RMK A01 T00141026  RH  075%=      5-min Rain = 0
KPA1 160431Z 12009KT 01/M03 A3005 RMK A01 T00141027  RH  074%=      5-min Rain = 0
KPA1 160432Z 12009KT 01/M03 A3005 RMK A01 T00141027  RH  074%=      5-min Rain = 0
KPA1 160433Z 11010KT 01/M03 A3005 RMK A01 T00141027  RH  074%=      5-min Rain = 0
KPA1 160434Z 11010KT 02/M03 A3004 RMK A01 T00151027  RH  074%=      5-min Rain = 0
KPA1 160435Z 11010KT 02/M03 A3004 RMK A01 T00161026  RH  074%=      5-min Rain = 0
KPA1 160436Z 11009KT 02/M03 A3004 RMK A01 T00161026  RH  073%=      5-min Rain = 0
KPA1 160437Z 11009KT 02/M03 A3004 RMK A01 T00161026  RH  073%=      5-min Rain = 0
KPA1 160438Z 11009KT 02/M03 A3004 RMK A01 T00171026  RH  073%=      5-min Rain = 0
KPA1 160439Z 11008KT 02/M03 A3004 RMK A01 T00171025  RH  073%=      5-min Rain = 0
KPA1 160440Z 11008KT 02/M03 A3004 RMK A01 T00181025  RH  073%=      5-min Rain = 0
KPA1 160441Z 11007KT 02/M02 A3005 RMK A01 T00181024  RH  073%=      5-min Rain = 0
KPA1 160442Z 11007KT 02/M03 A3005 RMK A01 T00171025  RH  073%=      5-min Rain = 0
KPA1 160443Z 10008KT 02/M03 A3005 RMK A01 T00151027  RH  074%=      5-min Rain = 0
KPA1 160444Z 11008KT 01/M03 A3005 RMK A01 T00131028  RH  074%=      5-min Rain = 0
KPA1 160445Z 11008KT 01/M03 A3005 RMK A01 T00111028  RH  075%=      5-min Rain = 0
KPA1 160446Z 11008KT 01/M03 A3004 RMK A01 T00111028  RH  075%=      5-min Rain = 0
KPA1 160447Z 11008KT 01/M03 A3004 RMK A01 T00111027  RH  075%=      5-min Rain = 0
KPA1 160448Z 12008KT 01/M03 A3004 RMK A01 T00111027  RH  076%=      5-min Rain = 0
KPA1 160449Z 12008KT 01/M03 A3004 RMK A01 T00111026  RH  076%=      5-min Rain = 0
KPA1 160450Z 13008KT 01/M03 A3004 RMK A01 T00121025  RH  076%=      5-min Rain = 0
KPA1 160451Z 13008KT 01/M03 A3004 RMK A01 T00131025  RH  076%=      5-min Rain = 0
KPA1 160452Z 13008KT 01/M03 A3004 RMK A01 T00141025  RH  076%=      5-min Rain = 0
KPA1 160453Z 13007KT 02/M02 A3004 RMK A01 T00151023  RH  076%=      5-min Rain = 0
KPA1 160454Z 13007KT 02/M02 A3004 RMK A01 T00171021  RH  076%=      5-min Rain = 0
KPA1 160455Z 13007KT 02/M02 A3004 RMK A01 T00191020  RH  075%=      5-min Rain = 0
KPA1 160456Z 13008KT 02/M02 A3004 RMK A01 T00191021  RH  075%=      5-min Rain = 0
KPA1 160457Z 13007KT 02/M02 A3004 RMK A01 T00211020  RH  074%=      5-min Rain = 0
KPA1 160458Z 13007KT 02/M02 A3004 RMK A01 T00221020  RH  074%=      5-min Rain = 0
KPA1 160459Z 13007KT 02/M02 A3004 RMK A01 T00221021  RH  073%=      5-min Rain = 0
KPA1 160500Z 13006KT 02/M02 A3004 RMK A01 T00221021  RH  073%=      5-min Rain = 0
KPA1 160501Z 13006KT 02/M02 A3004 RMK A01 T00211023  RH  073%=      5-min Rain = 0
KPA1 160502Z 13005KT 02/M03 A3004 RMK A01 T00171028  RH  072%=      5-min Rain = 0
KPA1 160503Z 13006KT 01/M03 A3004 RMK A01 T00121033  RH  072%=      5-min Rain = 0
KPA1 160504Z 13006KT 01/M03 A3004 RMK A01 T00081034  RH  073%=      5-min Rain = 0
KPA1 160505Z 13006KT 01/M03 A3004 RMK A01 T00051033  RH  075%=      5-min Rain = 0
KPA1 160506Z 13005KT 00/M03 A3004 RMK A01 T00041033  RH  076%=      5-min Rain = 0
KPA1 160507Z 14005KT 00/M03 A3004 RMK A01 T00021033  RH  077%=      5-min Rain = 0
KPA1 160508Z 14005KT 00/04 A3004 RMK A01 T00000-35  RH  077%=      5-min Rain = 0
KPA1 160509Z 14005KT M00/M04 A3004 RMK A01 T10011035  RH  078%=      5-min Rain = 0
KPA1 160510Z 14005KT M00/M04 A3004 RMK A01 T10021035  RH  079%=      5-min Rain = 0
KPA1 160511Z 14006KT M00/M03 A3004 RMK A01 T10031034  RH  079%=      5-min Rain = 0
KPA1 160512Z 14006KT M00/M03 A3004 RMK A01 T10031033  RH  080%=      5-min Rain = 0
KPA1 160513Z 14007KT M00/M03 A3004 RMK A01 T10031033  RH  080%=      5-min Rain = 0
KPA1 160514Z 14006KT M00/M03 A3004 RMK A01 T10021032  RH  080%=      5-min Rain = 0
KPA1 160515Z 14006KT M00/M03 A3004 RMK A01 T10021033  RH  080%=      5-min Rain = 0
KPA1 160516Z 14006KT M00/M03 A3004 RMK A01 T10041034  RH  080%=      5-min Rain = 0
KPA1 160517Z 14006KT M01/M03 A3004 RMK A01 T10051034  RH  081%=      5-min Rain = 0
KPA1 160518Z 14005KT M01/M03 A3004 RMK A01 T10051034  RH  081%=      5-min Rain = 0
KPA1 160519Z 15005KT M01/M04 A3004 RMK A01 T10071036  RH  081%=      5-min Rain = 0
KPA1 160520Z 15005KT M01/M04 A3004 RMK A01 T10081036  RH  081%=      5-min Rain = 0
KPA1 160521Z 15005KT M01/M04 A3004 RMK A01 T10091036  RH  082%=      5-min Rain = 0
KPA1 160522Z 15006KT M01/M04 A3004 RMK A01 T10091035  RH  082%=      5-min Rain = 0
KPA1 160523Z 15006KT M01/M03 A3004 RMK A01 T10091034  RH  083%=      5-min Rain = 0
KPA1 160524Z 15006KT M01/M03 A3004 RMK A01 T10091034  RH  083%=      5-min Rain = 0
KPA1 160525Z 14006KT M01/M03 A3004 RMK A01 T10081033  RH  083%=      5-min Rain = 0
KPA1 160526Z 15006KT M01/M03 A3004 RMK A01 T10071032  RH  083%=      5-min Rain = 0
KPA1 160527Z 15006KT M01/M03 A3004 RMK A01 T10061032  RH  083%=      5-min Rain = 0
KPA1 160528Z 14006KT M01/M03 A3004 RMK A01 T10061032  RH  082%=      5-min Rain = 0
KPA1 160529Z 14006KT M01/M03 A3004 RMK A01 T10061032  RH  082%=      5-min Rain = 0
KPA1 160530Z 13006KT M01/M03 A3004 RMK A01 T10061032  RH  082%=      5-min Rain = 0
KPA1 160531Z 14006KT M01/M03 A3004 RMK A01 T10051032  RH  082%=      5-min Rain = 0
KPA1 160532Z 14005KT M01/M03 A3004 RMK A01 T10061032  RH  082%=      5-min Rain = 0
KPA1 160533Z 13005KT M01/M03 A3004 RMK A01 T10071033  RH  082%=      5-min Rain = 0
KPA1 160534Z 14004KT M01/M03 A3004 RMK A01 T10071033  RH  083%=      5-min Rain = 0
KPA1 160535Z 14003KT M01/M03 A3004 RMK A01 T10081033  RH  083%=      5-min Rain = 0
KPA1 160536Z 14003KT M01/M03 A3004 RMK A01 T10081032  RH  083%=      5-min Rain = 0
KPA1 160537Z 13003KT M01/M03 A3004 RMK A01 T10081032  RH  084%=      5-min Rain = 0
KPA1 160538Z 13003KT M01/M03 A3004 RMK A01 T10071032  RH  084%=      5-min Rain = 0
KPA1 160539Z 14003KT M01/M03 A3004 RMK A01 T10071032  RH  084%=      5-min Rain = 0
KPA1 160540Z 15003KT M01/M03 A3004 RMK A01 T10071031  RH  083%=      5-min Rain = 0
KPA1 160541Z 14003KT M01/M03 A3004 RMK A01 T10071032  RH  083%=      5-min Rain = 0
KPA1 160542Z 14003KT M01/M03 A3004 RMK A01 T10071032  RH  083%=      5-min Rain = 0
KPA1 160543Z 15004KT M01/M03 A3004 RMK A01 T10071032  RH  083%=      5-min Rain = 0
KPA1 160544Z 15004KT M01/M03 A3004 RMK A01 T10071032  RH  083%=      5-min Rain = 0
KPA1 160545Z 15004KT M01/M03 A3004 RMK A01 T10071032  RH  083%=      5-min Rain = 0
KPA1 160546Z 15004KT M01/M03 A3004 RMK A01 T10071032  RH  083%=      5-min Rain = 0
KPA1 160547Z 15005KT M01/M03 A3004 RMK A01 T10081033  RH  083%=      5-min Rain = 0
KPA1 160548Z 15005KT M01/M03 A3004 RMK A01 T10091034  RH  083%=      5-min Rain = 0
KPA1 160549Z 15005KT M01/M03 A3004 RMK A01 T10101034  RH  084%=      5-min Rain = 0
KPA1 160550Z 16005KT M01/M03 A3004 RMK A01 T10101033  RH  085%=      5-min Rain = 0
KPA1 160551Z 16006KT M01/M03 A3004 RMK A01 T10101032  RH  085%=      5-min Rain = 0
KPA1 160552Z 16006KT M01/M03 A3004 RMK A01 T10101032  RH  085%=      5-min Rain = 0
KPA1 160553Z 16006KT M01/M03 A3004 RMK A01 T10101032  RH  085%=      5-min Rain = 0
KPA1 160554Z 15007KT M01/M03 A3004 RMK A01 T10111033  RH  085%=      5-min Rain = 0
KPA1 160555Z 15006KT M01/M03 A3004 RMK A01 T10121033  RH  085%=      5-min Rain = 0
KPA1 160556Z 15006KT M01/M03 A3004 RMK A01 T10121033  RH  086%=      5-min Rain = 0
KPA1 160557Z 15006KT M01/M03 A3004 RMK A01 T10121033  RH  086%=      5-min Rain = 0
KPA1 160558Z 15006KT M01/M03 A3004 RMK A01 T10131034  RH  086%=      5-min Rain = 0
KPA1 160559Z 15006KT M01/M03 A3003 RMK A01 T10141034  RH  086%=      5-min Rain = 0

Page generated in 0.0695 seconds.